GFSWCAN_con_3kmhel_237.txt.gz
Helicity
89 88 80 72 66 59 56 62 64 67 67 64 56 61 67 65 65 68 66 63 84 107 58 36 26 12 30 71 92 60 62 72 80 107 124 87 106 60 63 32 48 62 51 -22 -10 15 30 45 69 71 49 47 38 25
88 87 81 74 64 63 57 66 65 68 71 74 67 67 54 51 59 63 54 50 65 95 89 93 70 38 15 17 35 58 85 115 94 92 113 104 90 76 63 72 12 58 23 -0 -88 -92 80 85 58 25 -11 -18 -39 -37
88 84 81 72 66 66 65 76 72 68 66 67 66 61 60 59 64 62 57 104 104 94 49 65 54 27 36 17 2 56 68 34 30 37 72 125 147 64 69 59 11 -7 -19 -20 -38 -29 -15 -2 11 9 -3 -10 -18 -21
82 79 81 68 67 70 66 73 69 65 64 54 51 50 48 43 44 42 69 82 94 98 100 72 38 -9 -20 36 93 66 30 24 60 88 91 144 156 108 89 25 27 -2 -30 -23 -37 -18 -0 11 7 15 10 -5 -9 -22
74 75 84 67 64 61 63 69 72 77 58 43 41 39 27 22 23 23 34 49 53 78 110 55 47 25 24 21 41 64 84 70 57 99 131 108 85 81 103 84 93 33 46 46 42 19 -18 1 15 7 18 1 3 12
71 68 75 61 67 63 68 65 70 73 60 52 37 27 20 12 15 63 89 61 54 86 102 60 91 46 59 73 30 15 49 104 111 130 112 95 66 56 176 111 34 -8 4 25 34 -3 -19 -15 -5 -7 9 15 15 19
68 63 62 65 72 72 79 90 96 87 81 86 90 83 82 75 56 122 144 127 93 162 116 57 26 43 33 18 53 66 75 91 102 153 164 77 42 142 167 114 95 -17 -16 22 28 51 36 18 35 30 17 12 35 25
71 64 61 73 75 78 101 111 98 93 97 87 80 77 70 74 94 82 110 129 131 118 104 88 58 56 61 89 92 99 136 127 129 172 164 127 74 108 120 79 26 4 -3 18 38 41 45 33 22 32 32 14 -0 3
80 72 66 75 86 107 115 105 88 73 70 73 75 80 110 102 98 72 81 138 75 116 159 107 79 63 69 83 80 76 108 124 107 165 103 76 82 111 50 30 -0 2 39 24 28 40 34 44 35 29 24 3 -14 -10
75 72 87 100 108 107 97 82 72 73 71 84 106 157 134 95 123 108 135 130 128 138 194 150 82 62 73 75 70 73 92 74 101 97 58 110 63 34 32 -0 -5 57 33 30 10 17 32 18 21 24 25 -17 -40 -30
77 91 93 93 90 88 81 78 73 79 98 151 174 176 147 59 85 100 117 128 118 134 108 71 51 35 59 63 80 88 102 84 118 73 86 82 40 41 33 39 59 48 32 29 27 44 33 21 18 21 21 -32 -35 -6
69 71 73 78 78 77 80 79 74 136 155 148 148 163 134 107 123 119 158 127 123 95 91 64 63 25 56 58 60 66 81 81 108 105 84 97 49 61 71 77 51 45 24 9 25 18 20 21 25 16 -21 -36 -21 4
71 70 71 82 80 70 65 61 48 132 140 175 235 219 126 130 154 202 188 136 110 89 90 75 84 80 87 49 60 52 99 101 75 84 105 47 66 59 117 89 46 21 19 -2 -12 24 31 25 35 -26 -37 -38 -12 26
76 74 74 78 74 57 46 53 79 137 250 261 206 183 138 150 143 142 99 80 132 64 46 50 69 49 55 63 56 119 61 64 103 137 65 107 131 129 114 66 29 30 29 7 -31 -3 29 30 30 -40 -57 -49 17 30
79 77 81 87 92 105 93 75 86 123 240 195 150 139 125 145 160 123 78 122 115 125 52 54 44 52 56 73 63 63 79 133 130 97 130 148 146 136 93 83 42 33 21 -1 -24 -9 14 31 28 -30 -44 -49 43 12
126 143 196 113 96 136 107 72 110 119 207 189 155 154 144 122 90 92 93 91 101 88 57 60 59 71 80 72 112 139 166 144 78 156 183 165 179 164 156 74 64 50 32 -8 -18 3 7 35 15 -30 -38 -41 3 58
180 279 143 184 128 57 83 231 223 183 151 161 157 162 154 147 147 94 67 86 130 90 88 122 154 132 92 98 65 66 73 137 180 226 227 221 197 202 113 68 28 22 31 13 -14 -0 6 -0 -5 -19 -16 -15 -18 19
222 156 131 52 77 120 160 144 175 160 147 149 125 117 101 105 101 92 93 78 96 89 104 118 136 124 133 112 74 18 -27 29 59 84 121 151 136 97 79 76 52 61 35 9 10 12 8 8 -6 -3 -2 -10 -9 -1
84 67 34 31 120 202 204 130 162 155 129 124 98 74 69 75 61 66 71 83 89 83 115 137 131 124 86 72 76 93 127 92 60 96 123 105 99 82 76 82 69 29 12 17 18 14 18 5 9 9 8 -1 3 7
60 37 45 34 96 194 219 179 105 151 92 97 62 48 63 59 39 45 46 49 54 70 114 161 115 95 106 120 118 124 141 145 108 62 50 66 84 77 59 40 29 24 21 6 18 39 28 13 23 32 38 26 13 21
87 56 81 96 84 151 155 118 146 127 118 75 35 39 57 40 48 55 58 63 84 102 107 98 74 65 62 90 115 124 86 69 64 69 59 46 57 39 18 23 29 33 35 17 37 59 45 28 24 49 46 45 40 26
185 159 169 128 79 93 109 123 141 97 78 67 50 43 64 67 61 63 68 74 75 79 77 76 83 103 123 139 109 103 93 82 78 70 54 43 19 23 31 33 35 37 47 47 46 56 55 49 42 69 61 46 42 43
139 150 152 125 134 143 127 100 70 50 59 63 51 62 73 72 72 69 105 84 81 149 137 106 115 96 88 69 55 47 44 54 63 49 36 27 19 20 31 28 33 32 47 57 60 52 56 52 88 93 62 50 64 59
104 132 127 100 106 124 89 81 80 76 62 56 63 79 82 72 68 79 73 54 146 129 83 85 74 79 65 48 56 48 45 49 44 31 16 5 3 6 11 29 36 39 43 56 74 91 77 92 105 80 68 67 74 53
109 87 79 102 85 87 84 82 64 58 71 56 62 76 69 62 88 78 63 78 115 101 104 79 66 62 61 59 53 49 45 44 47 27 9 6 2 6 7 16 29 36 42 43 59 102 108 143 125 88 77 59 51 47
93 71 61 49 60 67 62 73 65 55 63 77 88 78 62 55 68 90 77 106 104 101 75 64 63 54 45 43 45 40 36 34 26 25 -2 1 4 -0 3 13 22 32 45 48 50 74 132 142 100 71 49 58 60 54
84 80 62 75 53 44 50 48 56 72 86 86 80 73 80 103 100 127 84 72 73 73 55 48 42 39 41 43 33 25 26 31 20 11 4 20 24 14 4 8 12 32 51 48 49 73 117 122 86 76 55 65 65 45
71 63 69 39 44 41 51 67 76 91 101 85 108 131 144 135 143 116 100 86 69 63 52 47 43 36 34 29 21 23 24 24 14 2 4 19 27 40 40 56 51 31 7 20 52 70 138 100 80 80 61 68 54 36
66 65 80 85 82 87 101 97 97 80 99 88 100 111 75 79 55 52 79 80 61 44 48 53 45 40 29 28 30 30 27 11 -13 -14 26 74 101 118 86 67 128 57 60 47 57 117 124 98 70 73 70 57 37 27
100 88 73 94 101 100 78 91 60 102 118 108 83 59 56 57 72 67 71 74 73 60 51 37 30 29 23 23 22 19 16 6 -8 -16 32 109 147 148 133 116 99 102 63 77 127 143 106 84 99 102 70 51 40 35
143 84 99 94 97 58 64 97 80 68 66 74 82 73 68 96 59 57 63 59 49 44 36 39 37 26 16 7 -1 -8 17 6 -7 17 6 69 124 149 136 107 95 78 95 163 157 135 113 92 76 66 55 36 28 29
116 124 154 141 96 61 50 52 43 39 45 51 55 75 79 62 59 48 56 57 59 56 51 34 23 13 -5 -33 -51 -48 -28 -17 22 63 121 136 149 206 131 103 156 168 225 155 124 97 76 74 78 69 60 55 49 55
74 65 66 64 60 52 63 69 77 64 70 66 79 82 81 87 99 97 48 50 47 42 37 21 6 -18 -37 -44 -39 -25 -2 21 80 118 163 188 290 314 237 231 218 188 128 102 117 109 96 78 68 67 60 62 74 89

GFSWCAN_con_3kmhel_243.txt.gz
Helicity
53 95 91 103 104 104 88 78 75 75 77 84 84 93 87 84 91 146 133 112 143 101 39 91 106 83 83 114 141 110 123 100 129 114 117 82 87 78 101 79 76 127 169 154 160 151 117 130 55 3 4 18 17 8
127 96 93 98 102 106 91 87 80 78 81 87 88 92 96 89 91 130 160 104 100 97 48 37 12 12 25 33 93 139 167 148 114 115 126 123 124 113 148 138 58 118 130 165 190 179 50 55 56 57 72 43 -13 17
199 94 105 104 99 115 105 94 81 84 81 81 86 82 90 95 95 117 133 164 154 101 27 61 55 15 -27 -13 47 132 146 119 123 131 165 152 156 108 153 120 72 45 9 108 56 85 15 36 23 49 26 19 -1 10
315 97 103 100 103 121 109 99 88 85 81 74 83 93 92 86 90 103 133 169 147 114 84 68 87 81 58 75 47 118 69 85 90 100 183 177 200 117 141 120 51 111 82 93 47 -27 32 42 64 31 52 23 29 20
268 81 118 114 107 107 103 102 92 79 76 69 81 81 89 81 76 117 118 132 105 121 87 53 14 18 19 77 118 73 104 123 115 138 150 177 178 168 124 124 106 170 125 144 123 113 74 35 6 -5 0 33 73 69
163 81 119 121 109 114 112 98 89 80 79 72 75 83 82 99 105 199 183 66 117 111 107 78 65 63 74 96 128 132 93 106 122 139 109 94 160 169 173 178 194 60 51 68 41 -32 -3 -55 10 41 71 102 118 91
88 107 121 133 120 112 115 103 94 82 84 68 69 69 67 76 134 231 155 120 113 149 119 104 90 65 64 144 151 152 112 134 100 86 125 121 131 165 213 225 200 12 -16 -40 -11 52 45 41 103 109 106 81 56 56
109 124 129 124 117 114 113 99 86 88 81 73 71 51 56 52 130 182 184 110 161 155 136 146 109 88 94 118 137 78 97 98 102 125 140 100 88 162 179 201 48 38 30 25 20 55 104 90 79 88 66 56 47 45
124 127 136 135 124 115 109 91 83 91 85 70 42 45 138 195 189 147 93 101 104 149 154 129 107 68 112 111 108 110 125 137 89 126 150 115 136 153 117 56 43 34 22 15 42 84 76 56 60 57 47 40 33 36
133 147 136 132 113 115 99 82 87 96 102 90 256 269 291 208 87 162 159 137 129 135 150 98 91 120 120 114 97 105 80 84 85 61 86 93 140 188 157 97 15 76 41 -14 43 37 43 51 63 64 46 38 27 37
152 162 164 139 129 98 87 84 102 136 251 398 375 359 184 124 178 160 149 138 141 133 80 75 119 165 156 159 108 80 113 83 73 54 76 82 54 47 60 86 25 -6 34 77 80 63 67 79 104 82 43 25 30 34
152 151 148 134 109 96 93 116 193 460 405 337 325 234 208 207 167 164 153 174 131 93 81 77 70 56 189 188 179 124 129 107 89 109 93 90 37 119 160 242 220 27 93 96 90 96 76 87 75 71 59 31 27 33
142 153 135 114 106 102 188 207 331 300 347 276 342 248 222 196 189 238 232 225 135 93 65 86 109 109 196 134 135 112 113 104 78 122 113 66 154 266 242 149 67 119 81 65 85 80 55 41 38 49 50 50 33 0
178 158 113 103 130 203 159 236 224 304 381 334 324 273 201 190 207 188 102 105 45 42 121 135 112 125 132 138 103 131 90 99 120 118 76 156 165 163 106 151 105 54 46 76 78 59 42 33 38 39 64 51 40 5
173 129 104 136 152 122 119 104 156 362 420 351 264 243 194 201 105 138 152 135 132 138 160 129 88 78 116 122 90 102 115 119 96 120 117 148 180 201 198 148 134 142 109 107 83 81 59 1 28 42 60 55 54 28
143 147 191 159 102 52 76 127 292 316 314 253 209 206 210 188 214 173 117 132 104 82 153 185 91 97 87 85 95 100 130 131 140 129 157 105 130 217 201 169 145 122 106 98 53 46 31 8 36 36 42 46 47 4
242 331 67 53 46 76 222 382 303 272 207 196 176 178 231 174 128 112 114 122 130 48 65 131 132 171 114 150 159 160 199 123 92 108 133 157 156 168 122 95 126 119 110 71 43 45 67 73 98 66 35 27 30 -1
321 147 71 79 163 215 242 206 269 182 128 154 173 145 184 171 127 129 95 158 181 106 76 58 94 184 193 187 241 144 96 102 105 125 129 119 110 107 81 62 63 42 29 52 62 60 66 95 107 93 50 26 26 3
187 89 77 159 216 234 224 194 220 117 106 102 130 136 134 118 143 172 186 189 205 195 164 146 162 175 209 173 109 112 122 97 87 84 89 99 123 135 113 91 70 62 51 45 49 58 61 56 105 77 41 43 56 15
122 80 148 103 228 285 234 151 163 139 72 96 114 109 115 117 123 137 143 134 157 191 185 183 200 217 208 136 75 95 88 83 90 103 111 118 86 60 43 36 41 61 80 78 80 78 83 86 76 71 45 23 50 46
115 157 197 205 298 253 214 153 180 135 133 109 99 106 80 73 83 107 106 104 131 147 151 146 118 103 97 71 142 155 167 151 137 101 56 31 17 30 62 74 79 70 60 54 43 32 42 34 40 27 81 47 48 49
218 188 312 197 185 241 196 147 149 174 174 115 95 69 54 60 75 77 69 91 95 93 89 88 106 144 166 163 146 131 128 118 98 80 69 84 102 89 75 56 43 33 45 43 34 32 34 45 62 37 71 56 46 64
308 310 236 223 184 149 165 174 173 158 129 88 67 55 58 67 62 68 94 81 68 63 87 128 161 143 126 115 108 91 111 137 122 110 94 85 65 55 58 42 34 26 22 23 22 8 -3 18 50 6 76 31 42 83
281 241 190 126 116 155 176 167 147 111 88 67 62 63 71 86 83 81 68 60 91 152 188 191 177 165 123 106 125 133 120 105 100 79 86 89 64 42 44 43 42 48 42 25 16 15 15 16 0 16 35 45 66 86
158 193 143 145 146 142 131 113 100 90 83 62 81 101 86 91 84 83 68 71 147 193 176 137 134 123 120 111 107 111 111 88 83 74 54 63 56 55 49 48 48 58 55 19 1 2 7 21 20 14 26 48 60 89
138 132 123 123 133 113 87 99 90 91 77 105 104 81 93 90 96 82 104 141 196 204 202 134 122 114 115 112 108 95 87 88 75 63 58 66 67 61 51 42 36 47 36 10 -5 -3 6 5 24 31 37 78 100 106
132 113 118 122 101 112 110 80 66 114 126 109 96 104 111 107 87 123 130 170 148 134 134 137 131 125 112 94 87 79 57 59 59 61 57 58 63 68 68 51 5 22 29 17 1 -10 3 13 -20 13 40 133 154 91
154 113 83 97 102 79 106 116 106 98 79 72 93 96 94 120 152 133 110 93 115 132 125 103 87 90 84 70 59 61 61 54 45 44 52 66 74 64 56 66 61 20 33 19 6 14 -2 -16 1 14 75 136 140 87
95 97 113 120 111 81 58 62 65 64 81 90 95 121 143 126 119 117 94 78 41 36 52 72 90 93 90 87 74 60 45 34 34 29 24 25 26 40 50 62 72 59 48 19 26 36 35 18 49 31 75 121 116 86
61 54 77 88 93 99 100 108 107 89 98 99 93 100 106 109 101 91 70 51 53 76 79 67 70 99 97 79 53 53 41 37 40 40 25 23 41 44 59 79 70 66 57 63 54 67 73 69 57 53 55 73 101 82
97 90 93 82 77 70 82 65 63 72 83 98 106 126 143 112 91 74 90 108 100 94 101 111 107 68 63 56 42 33 34 35 46 46 60 63 48 43 35 59 100 120 106 101 74 62 56 50 72 69 44 100 100 81
82 98 98 100 111 112 111 118 101 103 99 105 98 110 126 111 114 114 114 92 94 109 110 87 67 49 40 34 41 40 35 41 27 21 -22 -43 -19 48 112 141 144 146 116 83 56 55 57 63 72 87 123 101 77 56
131 155 164 157 157 140 110 112 110 116 102 86 77 67 93 118 131 99 70 83 71 65 63 47 42 39 46 36 24 24 21 3 -16 -36 -36 -9 54 83 81 119 129 105 41 38 26 21 63 54 142 128 99 63 58 61

GFSWCAN_con_3kmhel_246.txt.gz
Helicity
62 38 197 273 72 90 104 111 107 103 87 87 89 88 95 102 105 180 157 145 141 115 98 88 99 122 178 155 152 122 159 139 152 114 100 70 72 57 59 46 95 132 169 147 162 175 112 76 29 1 4 48 42 18
41 -35 63 237 107 94 108 113 111 102 95 91 88 90 107 91 107 160 184 160 133 107 73 61 27 14 60 81 129 163 156 118 100 128 86 84 78 93 102 84 82 114 161 188 201 164 102 49 38 57 105 77 50 80
44 -56 64 221 147 96 104 118 111 107 101 96 92 94 93 89 101 163 182 202 194 117 47 35 -0 50 45 63 90 138 140 164 192 164 150 122 92 118 122 86 87 72 79 121 105 115 106 26 43 59 51 44 4 8
8 -62 88 207 183 107 106 111 113 98 101 100 100 106 92 99 87 175 216 210 204 122 101 100 83 92 107 74 127 143 108 212 273 224 188 157 135 101 114 95 115 133 82 98 83 35 47 49 53 41 30 55 83 105
-3 -9 85 227 138 105 110 105 108 104 103 95 102 92 100 108 108 210 188 196 188 139 84 117 102 83 54 86 86 138 138 151 201 211 185 126 142 132 118 110 114 219 157 151 99 61 59 32 73 43 59 113 93 71
-15 -36 66 244 62 100 123 122 95 102 103 90 94 89 97 106 188 269 230 134 136 148 92 110 46 49 73 80 99 131 140 135 162 215 137 91 178 174 98 116 135 100 93 84 79 37 10 72 40 111 133 102 88 64
-17 -41 83 230 94 121 135 125 87 109 99 87 87 101 111 118 207 248 161 155 170 169 124 122 113 113 114 139 156 153 147 128 145 144 107 106 105 138 166 190 184 64 11 -26 3 53 28 77 119 137 117 89 77 76
-13 5 67 138 134 149 151 118 107 106 93 88 96 115 116 155 218 231 178 68 220 244 138 151 148 121 87 129 138 123 154 141 121 97 72 100 120 167 110 169 102 80 31 45 27 42 60 94 108 104 102 77 63 48
3 38 147 66 142 155 134 91 117 111 104 86 77 68 172 242 283 259 136 172 173 165 188 168 147 110 119 138 119 131 119 126 105 107 122 119 119 101 58 73 95 88 47 60 62 46 51 62 52 67 86 71 40 34
46 83 136 154 147 162 136 125 132 98 93 68 238 341 360 219 124 226 244 217 207 175 177 134 115 124 109 131 121 128 117 120 111 63 104 104 98 141 116 140 126 68 59 39 79 32 42 47 40 50 69 66 37 35
46 121 74 143 156 158 141 158 130 105 203 436 415 405 239 99 250 223 218 209 190 181 123 73 103 147 114 129 105 83 109 110 114 84 101 66 59 60 16 53 46 74 43 42 49 55 70 69 65 65 45 62 54 59
108 114 164 159 159 132 156 151 126 386 393 402 379 339 345 231 247 224 209 201 153 166 126 86 100 157 222 208 176 127 142 121 112 114 94 76 39 51 80 59 127 223 147 100 76 76 68 74 54 28 42 62 73 67
125 178 185 188 144 146 178 129 311 303 302 364 462 404 279 248 235 224 288 338 293 91 58 102 137 111 209 190 176 137 131 135 148 140 126 79 100 137 154 160 236 196 126 49 35 47 69 59 54 49 10 44 97 83
191 167 165 158 152 177 157 240 229 277 465 461 410 325 216 216 210 203 125 159 118 95 110 124 141 150 213 238 159 190 124 149 189 180 124 135 151 183 180 137 153 142 57 73 94 50 67 51 29 18 15 38 90 88
128 140 127 119 155 174 205 176 287 471 465 385 279 234 206 190 138 156 56 91 95 118 147 120 169 133 195 192 163 152 162 185 158 150 143 157 209 243 258 242 220 126 58 65 54 58 62 58 39 34 39 48 75 97
117 113 167 168 197 220 198 364 511 514 380 274 218 208 240 220 184 141 199 224 165 146 190 163 124 132 143 160 158 168 210 165 169 159 168 171 195 202 61 51 83 98 108 90 92 82 69 58 58 54 104 125 104 89
268 283 86 196 254 344 399 614 576 364 244 197 217 190 205 187 181 136 101 102 107 164 120 106 122 147 120 146 146 167 152 122 131 138 107 106 97 91 111 126 137 123 107 75 54 57 48 57 86 107 117 161 98 71
202 117 189 282 448 555 613 499 374 291 243 226 222 210 179 150 203 194 167 136 117 119 83 117 239 258 253 230 227 190 185 165 128 106 102 126 169 169 149 132 96 64 55 74 75 60 79 109 134 151 113 119 98 74
153 162 252 267 408 486 380 338 296 226 211 170 179 169 211 198 127 109 112 119 135 129 84 74 105 155 227 214 206 187 153 125 126 132 156 152 116 106 103 102 94 90 95 91 85 84 89 87 96 83 98 118 89 72
135 178 304 344 352 420 314 248 254 183 157 144 165 163 133 107 100 122 136 150 176 178 145 110 134 153 140 149 138 130 118 110 127 137 136 125 120 121 85 58 39 52 68 73 77 79 87 80 71 91 104 96 105 91
336 378 404 464 391 243 255 258 193 139 107 112 114 142 131 128 137 130 121 123 135 145 150 134 150 142 158 139 124 105 87 76 78 81 64 53 69 65 68 67 80 92 89 73 67 77 56 53 44 68 84 91 47 69
330 344 380 350 312 293 200 193 181 128 137 105 126 98 95 93 86 77 92 118 98 86 94 97 84 69 95 105 107 119 100 108 112 118 134 107 80 66 75 70 71 67 60 56 59 65 56 43 41 48 41 26 37 43
291 324 309 310 223 177 141 186 176 180 115 92 99 76 58 59 49 88 91 62 52 62 75 117 133 141 142 128 147 150 127 107 96 103 108 109 100 87 82 73 60 57 58 48 38 41 47 38 28 31 30 10 17 79
198 180 114 125 131 145 177 149 114 130 115 93 66 70 58 63 77 87 63 63 74 101 129 147 160 179 193 162 124 107 99 92 108 116 101 93 80 66 53 54 54 56 62 68 62 56 55 50 31 24 30 44 35 35
125 156 108 128 142 191 154 126 127 107 91 81 80 79 71 80 80 66 53 84 120 146 158 165 160 141 147 156 141 127 112 81 83 74 48 55 55 61 60 57 56 65 68 68 74 59 55 53 28 25 36 29 71 57
133 114 112 97 128 127 106 91 64 55 83 104 78 86 95 90 90 64 88 92 162 151 138 139 134 154 154 108 98 96 81 64 54 51 49 54 62 59 58 58 61 57 53 61 60 50 37 29 30 24 25 21 19 46
136 86 130 152 99 113 132 101 80 100 87 69 93 114 115 85 67 68 82 114 128 103 90 81 97 107 98 95 91 71 55 56 54 58 68 70 69 73 74 69 59 71 65 66 76 64 25 10 25 20 25 56 39 52
128 119 77 124 127 118 137 151 120 93 75 76 113 103 76 72 67 58 60 53 72 83 103 115 117 110 105 89 74 78 78 78 81 96 85 66 59 67 80 82 92 82 83 87 79 57 29 13 24 40 30 24 20 54
112 141 152 168 132 115 92 86 91 115 123 107 103 124 111 101 76 86 76 86 94 101 102 117 105 93 94 99 101 100 101 105 101 87 72 69 61 48 42 85 98 101 110 98 53 46 23 13 37 51 66 59 86 102
152 146 143 146 122 111 109 83 92 86 98 86 83 103 122 120 131 119 114 107 99 94 68 76 80 105 102 93 79 91 73 66 68 68 60 62 68 60 61 72 81 93 100 93 77 78 51 43 47 56 62 71 93 86
114 108 116 115 123 114 60 55 80 78 87 94 106 97 84 96 130 133 123 103 99 108 112 122 127 113 113 107 76 64 52 28 46 52 66 79 84 80 82 80 82 89 98 90 95 90 79 49 45 47 69 87 67 52
117 101 106 139 130 102 90 81 67 68 73 88 93 128 143 149 139 124 116 106 138 131 104 81 75 52 37 45 49 44 36 39 34 38 35 57 64 63 -10 26 67 103 96 114 124 106 82 48 36 31 86 68 40 105
112 124 120 113 120 126 128 127 139 128 136 130 130 119 128 134 126 88 76 82 57 50 49 47 45 55 60 49 43 33 29 33 32 24 12 -10 -23 -43 9 41 77 122 136 140 96 65 35 44 39 71 98 72 114 112

GFSWCAN_con_3kmhel_249.txt.gz
Helicity
9 17 47 64 15 27 235 350 118 130 127 106 120 117 114 114 119 198 165 139 142 136 107 103 130 140 180 164 171 118 170 125 130 108 86 71 104 79 76 68 86 101 116 106 132 169 103 82 73 83 51 32 63 65
14 14 34 44 -4 -14 193 444 130 114 122 118 118 117 118 109 134 188 199 188 140 131 98 119 107 114 95 123 174 183 105 81 78 90 72 96 96 89 89 84 87 97 121 135 136 102 103 76 40 58 89 88 72 61
3 7 24 32 -13 -7 176 440 128 97 132 125 114 110 109 109 125 226 220 251 220 149 85 71 66 67 83 76 103 138 161 143 144 118 115 119 110 106 108 74 94 86 114 130 107 104 96 33 42 104 64 62 51 108
-4 8 16 16 -20 -4 160 407 106 104 120 130 109 104 97 106 120 227 249 221 227 118 105 114 88 68 62 89 93 113 103 184 181 171 172 155 134 93 79 67 90 103 119 144 115 36 59 72 66 61 40 79 67 101
-8 4 14 5 18 12 203 305 126 95 119 118 120 91 89 98 112 263 268 211 174 163 102 128 119 120 95 103 109 121 166 207 226 220 194 151 140 124 77 76 123 215 182 173 105 81 83 55 54 24 61 90 72 59
-16 5 6 -11 -11 7 190 288 119 113 122 97 112 101 93 82 213 379 294 220 191 182 111 178 164 153 119 93 102 102 118 144 163 174 165 144 156 146 96 56 102 91 81 98 64 61 37 36 7 75 84 89 93 91
14 9 -9 -16 16 42 289 151 111 127 104 82 97 101 96 195 313 332 226 159 202 220 143 152 156 127 150 205 191 148 157 151 160 157 144 156 116 141 108 132 173 87 74 78 44 44 34 38 45 77 77 89 104 101
11 2 6 9 -26 99 265 65 100 117 89 91 98 103 161 192 256 324 211 62 252 242 163 186 195 169 146 186 190 170 172 154 140 134 145 128 158 170 74 95 93 70 34 2 -54 10 48 51 60 54 72 91 87 87
12 8 9 16 -7 206 297 123 127 114 121 75 133 181 371 311 346 278 79 136 222 209 201 204 174 158 147 207 183 189 150 139 120 127 140 134 158 123 50 49 51 54 50 65 65 74 72 50 51 48 56 66 77 73
17 -1 18 13 58 268 78 145 132 152 136 135 339 335 355 317 179 266 227 196 199 190 211 210 201 169 162 217 196 157 137 124 115 82 133 141 144 126 98 74 47 35 28 71 109 87 84 58 63 52 56 49 37 54
31 4 67 34 249 101 151 156 150 175 224 448 440 458 269 223 383 298 300 261 237 217 183 176 144 201 159 180 174 126 121 111 118 98 124 106 70 94 79 66 55 -3 38 73 64 124 104 76 58 45 39 25 47 40
29 62 37 133 135 159 139 173 197 433 395 421 439 374 401 288 319 264 248 237 192 211 155 189 192 202 204 183 196 136 133 118 149 145 160 125 52 59 78 64 79 103 153 155 120 96 67 57 34 32 30 58 58 56
48 22 159 104 202 167 189 210 361 293 334 415 543 501 293 246 245 205 281 351 316 129 201 179 281 313 268 223 202 143 127 150 191 197 215 101 77 73 111 190 231 211 252 168 111 84 72 55 19 27 41 42 49 46
58 99 95 202 162 208 289 304 215 369 549 584 507 390 292 257 212 212 181 213 188 120 99 152 326 265 243 246 175 193 169 204 203 220 172 136 110 138 155 169 215 162 122 122 95 64 68 54 56 69 89 94 74 71
189 116 169 139 180 284 303 227 317 528 526 405 287 254 222 205 144 142 36 133 224 145 124 220 247 166 243 204 204 204 193 203 187 200 187 178 191 215 172 153 162 172 113 68 79 92 90 87 79 59 60 86 99 122
144 138 179 177 280 284 204 357 550 548 416 321 249 203 272 183 133 159 102 134 172 148 179 239 203 183 197 188 205 212 268 202 170 120 182 210 212 174 164 134 59 -14 44 82 90 101 86 63 53 83 110 118 129 158
303 260 163 279 266 234 340 628 627 425 259 241 240 190 186 228 142 118 123 158 94 125 190 185 181 155 164 203 231 211 215 165 143 171 171 148 113 111 -2 38 95 118 119 115 104 91 80 89 120 147 157 155 140 134
321 191 234 311 431 455 628 511 358 233 206 243 213 155 141 177 204 203 156 176 214 212 188 165 149 175 188 162 145 153 150 154 150 118 102 114 111 113 106 107 116 102 81 68 67 90 108 125 119 111 109 102 92 81
259 318 363 343 423 552 455 367 318 260 258 243 220 218 168 185 201 165 153 144 94 129 116 112 116 175 200 160 149 179 166 130 137 165 161 139 130 128 128 104 76 73 95 103 101 90 91 93 89 86 88 87 80 79
340 317 329 362 376 372 299 287 321 253 237 212 218 233 215 164 171 190 184 177 153 143 125 103 75 73 74 112 114 98 92 110 142 164 150 145 134 115 118 108 112 124 111 97 94 83 86 89 99 98 85 74 78 68
483 427 523 477 477 348 245 324 246 216 239 237 198 185 146 127 129 105 126 161 165 134 130 94 116 137 136 139 148 154 132 94 80 85 95 124 124 114 116 120 105 86 80 79 83 86 84 85 87 82 81 70 60 52
539 525 623 517 451 376 230 274 245 183 176 150 206 142 88 98 103 108 104 132 104 109 111 121 131 140 143 137 125 122 98 118 135 128 136 124 120 108 85 75 81 79 77 73 72 76 83 84 73 67 63 59 38 43
507 525 477 393 248 193 221 288 289 215 146 133 151 122 119 122 108 97 115 76 80 94 98 96 91 116 143 139 145 134 115 130 138 127 113 97 85 83 86 79 73 73 74 71 68 76 73 65 65 65 57 50 36 39
359 282 256 208 221 243 218 175 174 216 131 111 116 112 76 82 81 113 93 88 92 95 104 116 166 213 210 182 150 131 126 108 104 100 93 90 88 80 70 65 65 67 66 64 68 76 78 85 75 65 57 41 27 22
227 214 199 228 218 169 128 134 134 112 100 105 102 100 91 92 106 98 96 115 113 118 141 169 182 144 148 137 136 133 124 89 82 74 55 61 64 64 63 61 61 67 68 66 76 75 77 79 83 69 50 50 32 13
95 104 100 90 147 111 99 100 89 96 118 130 111 95 92 92 106 81 81 85 97 103 113 131 141 151 140 100 95 85 64 62 55 51 43 46 53 60 67 73 77 74 45 58 66 71 65 73 65 47 42 42 44 2
117 89 117 142 104 126 155 139 104 87 74 63 77 105 100 87 69 56 62 82 120 124 114 102 96 92 93 98 89 72 62 57 51 53 58 64 72 78 84 81 82 90 76 75 85 87 82 76 60 48 47 49 57 29
107 81 70 133 144 125 124 143 106 75 55 63 95 95 66 54 57 42 52 62 72 77 98 107 97 79 79 77 74 80 88 93 91 85 86 98 97 92 91 87 80 68 88 103 96 95 105 105 74 48 44 37 41 45
138 161 133 150 119 113 104 93 99 105 99 95 105 107 95 95 71 61 69 59 67 91 98 102 112 95 105 96 99 90 78 87 81 82 81 82 92 70 30 72 99 105 109 108 95 106 107 95 62 50 20 24 42 49
181 151 126 156 105 63 78 85 91 91 111 97 80 109 129 143 150 105 104 98 95 92 80 79 71 86 80 87 85 93 87 88 91 85 84 91 87 60 57 69 82 103 104 123 137 118 72 40 31 30 23 32 44 57
158 143 146 156 138 134 125 111 111 108 112 106 115 108 103 96 123 132 122 100 94 100 112 122 125 100 93 86 82 82 65 50 67 47 63 83 86 86 86 83 91 94 121 127 136 144 49 38 36 32 34 38 55 67
137 114 121 151 154 140 136 115 99 97 109 98 100 98 107 115 112 116 120 116 141 149 131 110 97 61 26 42 53 56 50 52 51 54 49 69 72 81 87 81 79 94 99 119 152 44 45 52 59 46 39 39 53 80
159 156 146 145 145 130 129 104 119 100 114 107 113 103 111 120 123 101 97 106 88 89 76 46 31 37 37 30 37 42 40 46 44 43 36 32 41 41 39 38 27 18 39 50 79 67 81 69 55 35 33 31 75 110

GFSWCAN_con_3kmhel_252.txt.gz
Helicity
24 21 31 34 34 48 41 53 -11 188 494 115 138 125 113 135 133 247 247 226 224 212 127 95 115 113 201 180 184 129 217 149 154 124 91 73 90 90 127 114 120 122 128 114 143 146 82 65 103 113 78 57 80 68
4 15 15 25 28 28 32 21 14 131 421 114 141 119 109 111 123 209 295 285 236 227 133 125 125 107 139 125 166 192 120 93 94 115 87 101 95 107 119 133 119 133 129 126 121 99 96 112 87 88 95 108 76 81
3 7 11 11 16 18 50 32 31 -30 389 140 136 106 103 99 102 213 301 354 302 228 173 114 114 109 110 107 138 192 197 133 127 110 90 99 106 114 127 106 136 108 122 136 118 72 80 96 94 84 98 59 65 108
4 -9 -11 -0 13 13 7 23 23 -24 345 163 137 107 106 97 67 237 295 298 331 246 189 141 104 112 107 100 138 163 136 189 164 153 136 124 116 99 102 111 124 108 120 124 115 93 65 22 67 56 18 48 88 82
5 18 -15 -1 6 7 6 3 14 22 334 91 117 109 114 83 73 311 309 251 252 240 144 136 116 105 99 116 130 149 154 163 168 162 150 120 137 137 117 120 100 194 218 182 102 94 88 55 50 12 16 64 59 66
-18 27 -7 -3 -3 7 20 11 -32 78 266 84 99 106 118 75 199 379 317 220 211 212 207 164 180 132 121 147 143 176 170 190 187 156 137 111 156 141 114 89 61 76 85 128 100 67 54 33 7 24 56 58 69 81
-1 8 10 -15 -16 -9 8 5 -55 247 230 95 119 99 93 107 343 366 283 159 229 262 253 225 144 199 154 183 221 212 215 176 152 159 134 135 120 149 166 122 130 75 65 58 55 56 16 67 62 40 53 63 68 80
29 4 -4 -0 4 -1 -9 -48 2 228 73 93 108 65 112 205 384 350 250 142 317 301 235 214 212 169 162 249 243 187 182 172 163 143 130 131 145 164 113 90 110 98 79 60 61 57 64 70 58 58 50 47 61 65
27 14 4 7 2 -4 -0 -22 145 179 109 122 99 187 373 421 470 372 183 262 310 251 212 230 206 200 178 221 213 222 185 176 129 122 137 126 138 141 34 45 71 55 67 65 37 12 34 70 74 64 63 45 39 32
18 17 31 16 4 13 18 18 218 102 107 128 389 370 328 296 268 323 357 249 212 224 259 248 303 242 211 270 267 223 187 153 118 99 140 144 151 83 25 74 80 63 42 57 118 124 108 92 80 65 45 27 18 22
31 27 23 21 23 42 -1 117 123 146 257 527 432 337 285 236 512 382 302 246 229 200 203 268 234 258 228 239 236 179 153 148 143 114 138 132 83 77 91 49 35 53 70 52 63 90 94 101 94 55 35 24 19 27
32 25 19 7 34 51 126 232 218 493 434 354 364 418 566 444 294 256 245 230 203 192 168 280 272 275 232 219 231 171 175 151 167 154 173 151 74 81 78 54 42 60 111 99 110 144 113 122 64 45 28 19 39 53
35 20 14 16 41 83 252 197 375 290 276 401 633 554 364 306 280 220 270 322 280 234 274 310 388 297 270 250 256 187 167 190 196 190 222 115 88 101 141 131 154 170 211 202 185 130 108 72 49 56 37 58 70 70
19 14 62 111 121 206 389 307 259 342 550 583 537 484 343 271 197 166 235 282 315 166 148 278 413 338 328 307 206 229 220 214 203 250 194 120 114 123 154 177 217 215 195 184 170 141 112 76 58 61 58 51 54 87
18 137 45 133 122 410 303 298 347 567 564 424 288 271 220 240 154 209 95 254 310 151 225 299 400 336 394 294 246 225 194 209 196 178 146 135 157 169 216 224 206 209 200 216 152 94 48 48 61 57 28 48 85 121
84 93 105 203 334 297 331 437 558 541 445 354 245 190 214 209 179 202 139 143 173 179 205 330 262 232 226 226 225 240 275 234 131 95 125 198 189 192 195 174 139 135 114 88 63 67 87 95 74 71 79 107 106 92
119 299 238 337 324 432 489 654 627 435 297 264 202 166 185 146 130 114 112 101 92 191 358 306 284 258 201 242 266 226 200 126 120 140 169 178 215 201 166 110 63 44 65 76 79 100 94 92 94 103 105 99 94 83
323 245 433 450 455 630 695 568 436 265 219 268 177 154 131 170 136 133 143 127 141 202 278 271 224 240 225 175 153 144 152 159 148 178 196 193 161 99 87 74 48 82 91 91 89 86 84 89 91 93 95 87 79 78
287 390 412 394 501 583 495 407 337 302 256 248 185 180 186 195 171 161 201 192 195 203 184 199 127 128 129 91 86 104 101 116 180 190 156 99 57 53 69 94 104 105 98 84 78 77 89 95 86 89 87 79 74 70
353 381 434 408 394 444 371 369 364 314 261 253 228 193 162 157 207 222 215 226 211 158 114 124 125 108 98 79 76 113 170 186 206 211 182 171 159 149 133 111 98 91 82 92 99 103 99 98 91 83 80 77 72 64
550 458 459 449 529 349 241 358 260 263 279 188 210 175 129 116 131 144 178 169 166 142 129 105 66 67 95 120 117 138 129 120 134 118 105 136 141 138 114 107 112 111 105 99 90 87 86 81 79 76 77 82 75 72
468 445 599 532 515 388 287 307 270 274 271 263 218 142 101 121 121 125 121 114 104 104 88 91 96 109 155 157 170 164 166 176 158 149 160 143 115 113 116 113 110 96 86 75 71 74 80 75 70 72 75 76 77 75
399 475 438 358 272 195 270 309 308 265 151 158 183 128 104 112 105 95 122 109 106 104 101 143 170 153 157 148 175 160 120 114 119 118 126 130 119 105 95 87 78 77 77 73 62 65 67 64 70 79 81 85 89 84
324 207 194 228 199 224 210 248 204 159 148 150 113 113 128 113 95 99 93 100 119 124 114 123 149 192 213 205 196 161 151 132 138 136 113 96 86 77 74 71 69 65 64 64 66 68 73 79 77 79 94 96 91 90
161 201 154 191 264 202 165 147 160 123 142 140 172 152 111 99 119 130 113 135 132 135 152 149 171 173 185 189 184 169 146 109 97 85 64 64 68 72 65 60 61 61 62 67 70 77 84 92 97 102 103 112 93 79
165 139 119 147 191 157 137 102 94 124 149 148 121 103 111 113 123 93 112 112 112 106 115 128 162 190 186 147 130 113 96 85 74 67 49 50 53 56 62 75 78 69 39 61 88 95 95 99 101 95 99 90 83 85
141 114 137 144 126 150 183 144 139 115 102 84 105 128 115 106 96 79 85 106 132 142 143 138 127 120 113 117 112 91 73 65 56 49 44 45 53 64 78 78 80 90 98 96 103 111 114 112 111 102 101 92 94 88
128 118 99 142 135 141 123 141 105 83 72 54 88 116 84 66 68 63 99 101 120 148 167 173 151 112 101 91 74 68 82 73 64 60 69 80 79 67 73 86 90 85 104 112 105 101 99 108 114 110 99 88 69 69
103 149 123 176 155 143 117 89 82 79 79 101 96 99 94 90 85 86 86 77 87 105 117 117 120 101 100 92 92 72 58 64 66 79 76 80 103 98 56 92 120 110 101 97 79 73 89 98 99 115 118 109 79 47
160 157 123 133 91 68 68 49 80 85 118 124 96 128 166 165 146 111 81 82 87 90 77 77 68 79 74 75 75 82 72 65 59 68 67 86 94 87 84 84 81 80 76 80 80 75 56 76 103 111 106 69 46 26
168 148 139 142 128 142 147 137 123 115 112 122 165 157 138 122 137 147 128 95 76 75 94 98 95 76 78 74 72 80 80 45 44 47 61 79 77 76 82 79 74 80 82 83 66 76 91 95 105 105 86 18 22 38
162 128 135 174 163 167 153 140 124 121 139 117 120 108 110 109 103 104 109 100 119 120 107 100 113 94 44 42 39 27 44 39 42 54 48 67 66 73 80 79 73 79 74 75 105 108 109 97 109 36 42 49 47 55
175 178 195 210 170 138 132 112 132 110 125 114 121 107 107 102 98 91 109 117 104 91 94 66 53 56 50 39 41 41 28 31 34 35 36 33 44 47 59 60 62 61 63 79 86 80 50 63 66 71 69 48 48 57

GFSWCAN_con_3kmhel_255.txt.gz
Helicity
67 26 24 34 39 30 34 42 48 47 36 82 114 311 113 139 139 259 285 297 284 293 215 184 157 217 268 249 259 171 221 170 168 136 97 90 93 89 103 108 108 152 166 128 144 104 63 63 113 113 112 65 48 45
63 39 19 8 22 16 28 37 37 51 24 74 68 227 364 166 145 229 258 267 256 278 199 198 201 137 192 159 216 186 145 118 142 141 119 107 106 96 98 99 127 133 147 134 101 88 72 82 99 103 56 51 48 44
55 19 4 -13 7 16 18 30 29 44 35 43 42 228 513 167 129 214 280 366 267 279 289 206 213 153 168 154 162 223 211 140 130 122 113 122 106 93 102 82 120 133 138 162 141 72 81 73 76 71 45 34 22 45
64 35 -3 -12 -8 20 30 32 17 33 29 35 -22 183 314 144 84 239 255 299 335 348 274 210 175 198 141 145 176 213 167 212 179 176 142 103 101 74 96 107 108 130 176 161 128 91 94 70 72 41 49 8 34 45
63 39 11 -13 -12 4 17 17 15 5 51 -20 43 193 271 148 57 273 262 304 302 294 173 193 187 185 148 165 165 166 176 224 223 188 145 120 126 103 106 98 101 194 213 252 128 72 101 108 130 83 24 16 38 50
53 22 -3 -6 -9 -17 4 16 17 12 27 -76 -123 166 94 106 162 279 329 274 235 211 158 224 244 179 215 171 192 207 218 221 211 167 142 114 124 117 90 79 64 52 70 89 70 106 88 120 60 30 24 38 45 52
10 9 3 -11 -10 -10 0 10 9 -6 6 -21 -41 257 70 85 348 270 266 254 229 242 275 253 246 303 184 254 308 260 269 224 194 176 148 146 127 133 139 105 99 39 67 71 75 110 70 74 71 69 67 61 57 56
-11 -10 -16 5 -3 21 13 12 -3 14 4 59 39 164 111 221 302 185 289 83 321 299 273 291 280 261 252 310 288 276 245 215 198 181 146 153 144 164 90 55 78 90 108 91 81 51 100 125 107 93 71 55 44 41
22 11 11 12 -6 -18 5 5 11 22 63 14 175 122 402 461 265 325 194 265 464 337 280 243 255 304 216 333 315 276 242 216 174 165 154 116 139 132 25 39 56 55 62 100 70 80 114 96 69 79 67 46 39 27
28 29 21 19 -12 1 5 1 8 26 10 235 233 457 426 265 159 295 449 418 345 314 255 233 290 295 236 306 312 291 242 182 131 115 137 142 116 57 31 65 113 94 49 64 94 89 119 88 85 82 54 41 26 20
10 14 13 0 -2 13 4 5 29 2 105 307 447 409 342 275 549 490 425 330 265 223 207 247 284 297 261 253 270 191 146 143 129 109 112 109 64 62 54 52 85 123 116 47 59 103 67 91 106 75 55 29 21 14
9 11 13 22 17 16 16 18 45 68 199 362 469 499 620 525 404 376 500 367 221 216 216 340 295 347 291 274 224 205 191 143 139 126 147 145 53 58 74 76 68 52 82 93 65 96 110 118 97 85 61 32 30 26
19 15 24 32 16 1 23 33 78 86 238 437 716 476 320 226 233 277 308 282 179 224 279 462 432 341 319 297 272 218 178 185 157 158 170 103 64 67 60 69 85 90 101 168 148 178 186 163 103 77 35 33 45 37
26 17 17 19 21 40 90 24 15 282 525 680 483 351 245 262 235 227 242 268 230 126 184 298 468 364 333 306 186 213 218 199 180 195 171 77 77 90 126 136 156 176 199 248 231 209 183 115 79 40 22 33 28 26
30 21 13 22 23 63 97 79 288 493 560 471 319 333 218 202 216 170 187 312 242 134 232 366 423 334 395 298 261 228 201 217 173 158 85 111 156 152 191 197 217 248 298 299 203 167 124 87 58 19 38 52 61 65
15 36 94 81 82 90 192 420 543 513 419 300 244 219 178 239 241 208 121 217 317 229 249 313 332 297 250 222 205 244 211 168 138 81 93 136 162 197 207 186 181 174 183 164 141 124 91 54 50 65 68 84 102 99
34 130 100 26 41 190 416 583 641 462 363 331 218 193 150 148 148 145 164 159 160 259 301 289 250 238 202 232 248 213 221 161 108 92 145 157 167 170 180 180 161 148 134 99 81 79 83 78 82 93 105 101 95 87
139 74 122 213 417 546 674 590 397 282 300 332 205 184 140 161 161 157 142 145 179 279 307 258 174 207 213 159 179 185 147 153 137 121 130 148 174 212 185 158 105 110 97 85 95 93 88 90 95 86 78 79 75 79
213 303 332 419 519 605 537 526 343 354 297 280 205 170 148 167 165 113 135 159 214 245 231 251 156 174 181 131 123 97 113 127 164 171 176 177 170 148 115 114 113 87 72 85 87 82 79 78 75 80 75 75 74 70
254 399 453 410 333 470 503 446 433 308 243 217 187 160 123 136 178 156 121 187 223 248 219 199 186 142 140 72 49 88 122 144 182 232 224 183 140 107 100 94 94 90 94 85 75 78 84 84 82 77 71 70 67 67
455 408 529 412 458 367 344 386 340 326 239 142 163 151 161 206 178 189 149 127 125 169 142 141 145 135 87 74 94 124 150 170 200 207 191 176 149 149 137 132 105 78 76 77 90 96 92 87 82 74 70 71 66 61
570 469 566 442 462 327 335 322 286 283 230 142 143 103 117 125 120 133 230 205 158 152 118 99 88 75 76 96 110 138 153 163 155 161 167 149 123 128 118 94 84 86 102 112 105 94 84 73 69 68 69 68 66 68
363 476 513 362 304 208 306 347 338 268 172 165 103 92 93 93 92 94 100 149 137 110 97 116 132 136 151 142 176 202 193 190 193 176 151 131 114 102 96 100 108 115 113 98 81 72 68 64 61 65 66 66 68 70
360 281 321 248 209 223 220 246 219 209 147 140 70 76 91 88 94 125 130 143 133 91 112 122 143 183 209 207 204 166 154 156 156 144 116 106 110 114 109 108 101 91 76 68 61 58 58 61 65 68 74 76 79 77
124 187 195 269 229 203 179 165 157 141 131 120 117 83 84 89 112 128 122 117 104 107 121 137 183 194 243 243 229 211 168 112 98 104 110 100 93 87 89 80 74 63 54 54 59 61 63 72 79 84 87 91 91 86
133 110 134 177 201 167 134 100 48 46 93 125 124 104 104 90 105 91 116 124 109 102 101 129 159 218 222 137 146 160 138 112 104 113 96 80 79 77 72 67 66 71 58 63 67 68 71 82 94 99 116 106 107 110
133 97 105 118 111 112 102 114 124 111 127 111 117 129 108 95 88 85 96 114 114 112 115 122 134 126 146 147 144 136 117 110 96 79 67 63 57 54 53 54 58 74 82 83 87 92 91 103 112 118 126 121 102 96
87 103 73 122 128 142 149 123 107 125 101 95 128 144 102 74 73 81 110 122 147 160 201 212 192 167 160 130 104 97 93 76 71 67 62 65 71 71 78 86 91 95 97 99 98 102 98 102 104 104 102 106 105 92
112 121 105 167 145 156 158 131 125 112 99 105 108 104 90 98 101 106 97 106 126 145 171 181 189 149 142 129 114 93 76 66 61 71 72 73 83 91 115 101 96 92 84 84 78 82 81 91 97 105 83 92 87 88
143 117 127 151 130 131 117 100 105 118 159 143 103 131 174 185 186 146 105 100 120 126 115 102 86 91 79 69 69 71 69 59 60 64 64 69 76 79 84 83 77 70 63 62 74 66 51 55 71 82 76 91 114 104
138 126 139 155 129 119 102 87 105 138 142 152 220 221 206 180 186 161 128 111 98 90 106 106 96 78 70 70 71 73 77 53 45 44 44 53 57 63 72 71 70 65 64 72 76 74 66 66 84 77 75 71 79 83
139 127 141 168 150 153 137 148 143 142 151 145 146 142 148 135 124 109 113 92 87 97 86 72 75 77 63 61 53 45 46 38 43 49 47 54 54 57 61 65 68 72 77 77 76 73 70 76 99 81 72 60 48 10
166 195 192 170 166 133 156 135 151 125 128 110 110 96 98 94 83 79 96 96 85 83 81 78 79 71 58 53 59 55 46 51 44 40 37 33 37 39 50 60 62 65 63 75 71 85 78 63 66 58 30 23 35 31

GFSWCAN_con_3kmhel_258.txt.gz
Helicity
24 200 81 124 92 88 46 47 49 55 39 63 46 96 50 0 266 237 345 251 279 283 249 207 206 156 168 137 257 234 270 257 212 192 167 131 115 100 104 94 98 110 112 124 122 113 86 126 137 80 126 110 79 47
31 144 95 120 95 100 36 41 43 38 38 50 39 26 114 -81 161 211 418 242 255 222 273 195 204 224 131 56 152 153 205 138 180 184 181 153 144 112 105 93 83 92 113 116 94 96 119 92 80 93 86 82 53 24
49 89 90 91 65 78 33 30 33 32 39 47 45 27 9 30 0 307 419 355 260 232 172 161 167 155 147 191 141 268 250 224 191 205 168 167 155 117 114 78 73 67 115 114 123 73 104 93 101 99 87 64 39 22
32 8 160 53 51 59 32 9 24 28 41 42 41 33 16 33 37 490 430 320 376 342 278 175 157 175 144 141 194 202 184 216 188 181 207 168 172 107 117 127 72 89 126 92 95 79 116 83 78 73 78 59 32 29
34 35 80 23 43 54 28 6 21 17 23 29 30 33 17 -40 41 369 447 308 308 345 212 207 232 177 175 160 162 126 149 187 199 218 199 177 153 102 102 98 46 109 104 128 103 70 96 106 76 83 97 63 52 41
25 50 66 44 44 28 4 -15 21 22 26 7 31 37 57 27 239 248 516 270 239 282 230 252 229 188 164 172 156 159 192 223 228 179 171 149 144 106 79 87 40 51 42 36 40 132 86 113 109 122 99 86 71 48
13 18 11 43 47 30 9 -16 -1 16 12 12 7 23 48 -94 206 269 420 344 162 239 294 217 215 214 156 161 244 225 226 258 245 218 175 138 120 150 133 75 18 42 46 53 90 124 103 124 106 86 86 103 81 58
26 9 13 34 24 17 -3 -15 -16 9 20 22 25 61 36 59 190 358 325 218 238 354 298 254 235 326 226 272 280 214 239 251 220 209 170 148 138 143 70 28 35 60 76 122 132 77 91 113 121 116 123 105 84 66
18 16 22 2 -2 6 -10 -11 -11 12 14 10 23 23 1 91 237 441 203 132 316 406 408 270 190 332 347 332 296 281 204 219 154 159 140 108 124 129 15 19 45 48 73 66 92 99 128 146 144 139 124 93 81 68
13 15 16 16 12 3 0 -16 9 23 14 5 47 111 67 109 250 417 243 322 381 390 339 287 205 215 280 332 314 259 195 199 143 124 132 152 141 44 64 54 57 54 54 73 74 104 120 133 129 110 92 81 77 62
1 12 28 21 0 -13 -4 22 39 24 25 62 63 109 151 291 498 413 349 365 351 374 352 288 184 205 150 231 311 293 208 183 156 119 141 106 90 42 41 55 119 110 125 73 56 69 61 84 108 91 97 87 70 53
7 17 28 23 31 20 25 31 23 54 56 40 92 376 699 409 294 191 216 265 332 336 251 221 177 174 239 199 190 168 203 156 160 124 174 117 60 50 67 50 44 140 154 128 72 77 62 77 93 105 102 86 78 43
7 -2 17 17 22 13 9 12 4 51 32 -9 324 526 286 308 249 193 327 417 332 269 224 262 301 250 258 246 238 223 217 235 136 154 165 118 62 62 63 80 77 85 127 136 124 138 143 165 155 126 123 97 59 32
-8 16 17 23 22 14 18 10 30 29 -47 226 456 431 281 343 223 211 243 245 275 264 295 288 398 338 283 328 193 209 211 168 187 184 173 94 44 63 66 73 84 89 81 142 149 155 177 180 181 156 104 72 54 50
6 14 24 28 39 28 43 42 10 -193 184 306 338 360 240 215 169 233 228 224 182 125 213 291 349 327 334 284 262 208 171 202 151 154 120 94 96 103 114 127 132 141 154 178 232 217 211 175 142 111 75 50 27 34
18 25 56 45 35 40 7 -75 -242 95 229 322 258 226 209 245 136 170 139 170 142 146 238 238 299 242 276 245 201 217 211 161 143 69 99 112 140 160 165 163 164 167 198 242 248 199 166 150 110 74 34 40 59 71
81 124 24 58 69 86 -14 -9 139 316 384 280 216 215 215 193 119 106 115 180 184 247 252 235 234 247 187 177 159 209 223 194 75 37 73 92 112 148 188 215 222 213 234 232 200 157 125 83 51 56 70 86 100 115
68 97 39 52 136 176 155 223 297 324 391 330 249 211 165 152 147 149 105 71 160 221 196 211 172 198 243 186 189 186 205 220 167 112 108 105 123 160 181 216 215 199 185 162 142 105 75 65 65 72 87 117 114 103
66 107 69 130 296 366 421 403 309 353 352 272 205 160 139 155 136 105 113 136 191 257 239 258 146 106 131 136 104 136 179 170 183 189 171 154 179 212 217 210 191 176 164 136 106 76 78 85 93 107 119 107 90 75
137 194 257 242 196 344 341 315 364 324 301 254 197 164 148 178 181 157 180 200 201 164 223 240 215 146 140 102 76 57 73 133 188 224 250 245 219 205 194 175 150 130 118 103 90 82 82 85 94 96 91 77 62 63
326 410 335 297 413 267 282 384 307 275 238 146 147 112 119 132 106 112 194 237 187 136 137 220 125 117 104 96 82 71 86 93 94 104 190 261 198 189 181 164 145 124 99 80 75 78 68 79 92 86 66 67 59 54
412 323 393 370 410 356 337 342 266 205 179 130 146 166 137 117 161 143 107 63 116 134 124 157 77 61 76 73 98 133 145 186 225 242 231 209 201 176 155 134 112 99 89 77 71 80 95 109 95 75 69 62 56 59
334 474 418 339 269 178 359 323 259 211 96 94 131 182 139 144 127 146 81 44 78 150 125 124 131 105 105 107 138 140 127 157 187 192 180 178 172 157 139 122 94 77 82 96 106 117 110 94 70 61 59 57 63 63
282 286 244 182 120 121 208 249 234 173 79 111 117 91 87 94 103 113 152 168 179 178 162 152 134 159 172 165 177 175 161 145 169 182 153 139 136 125 103 97 96 102 114 115 103 87 74 62 57 55 58 56 58 65
32 86 58 78 93 108 135 150 142 126 85 113 52 59 80 71 88 111 128 118 131 131 141 112 96 90 114 132 151 164 149 132 126 133 135 116 102 96 107 116 122 115 87 71 67 60 53 54 52 53 56 59 62 73
55 94 104 103 147 113 94 85 68 64 111 99 81 62 68 84 105 104 121 98 107 104 102 85 91 116 150 149 169 176 181 150 130 143 142 130 126 117 106 93 77 68 69 69 58 52 48 50 54 59 75 86 97 103
112 85 101 132 132 93 108 84 93 97 97 72 70 89 83 98 101 101 131 133 113 114 113 108 103 121 166 180 199 197 161 143 131 116 97 93 89 82 73 67 63 65 53 50 46 46 53 65 76 83 90 91 87 92
105 56 59 121 108 140 141 138 105 77 55 53 98 110 102 105 94 93 107 109 112 120 146 172 161 149 148 144 125 114 132 125 108 89 75 72 72 60 62 69 71 69 61 64 68 74 75 78 82 84 86 92 101 90
93 120 131 205 168 148 144 122 82 78 88 115 114 112 98 116 133 137 143 143 120 133 192 201 187 153 152 149 152 150 141 121 92 86 76 59 50 51 77 71 67 68 68 64 57 62 61 77 81 89 82 97 94 90
149 140 127 162 166 157 137 122 106 125 138 106 88 121 174 202 203 205 152 144 142 155 152 139 127 123 132 120 115 118 112 95 98 80 69 64 62 63 59 56 54 55 57 58 61 61 58 63 65 81 81 93 87 73
134 139 160 173 164 148 148 164 159 167 181 211 231 214 224 223 236 211 190 175 145 135 132 150 155 134 114 101 80 65 64 63 68 67 61 54 50 50 52 54 54 56 60 62 66 71 71 77 83 80 70 64 52 65
146 124 140 194 164 120 138 157 163 186 183 166 201 195 216 195 175 134 134 133 104 113 123 110 100 93 82 78 80 88 89 69 63 59 49 41 39 37 40 47 53 55 58 60 64 68 64 70 82 66 67 44 37 28
164 173 199 212 181 140 145 148 169 140 148 144 147 150 148 138 111 106 109 119 115 99 96 94 87 77 74 78 77 74 65 61 42 22 10 7 9 18 33 37 40 43 43 54 59 65 60 44 57 48 34 23 16 17

GFSWCAN_con_3kmhel_261.txt.gz
Helicity
19 10 63 58 66 101 117 93 83 37 24 67 61 41 26 49 5 73 174 311 159 172 154 204 164 115 109 104 196 176 274 231 222 197 188 188 176 151 130 79 111 140 109 130 100 114 53 145 174 105 148 141 133 79
26 28 49 17 71 74 200 87 105 69 32 69 66 62 28 31 18 68 158 276 183 157 107 136 208 140 193 53 120 152 197 178 250 237 201 188 197 152 137 157 111 115 125 114 112 77 105 119 99 83 105 115 97 86
-30 9 39 51 80 65 154 84 115 102 52 53 59 53 42 15 2 49 68 260 219 202 214 137 159 222 178 150 154 193 95 53 124 114 179 183 169 137 144 97 78 57 55 112 101 47 94 85 95 92 106 90 103 80
-13 -23 21 79 67 111 124 103 100 84 61 50 53 40 33 27 -9 34 132 197 148 346 268 141 140 208 154 187 231 146 82 199 155 197 206 195 184 121 125 158 91 96 92 83 57 56 98 89 76 118 107 89 99 85
-7 -3 49 50 56 68 128 73 74 75 33 36 40 23 27 5 -7 57 106 14 217 382 206 205 84 161 163 169 205 194 149 135 139 207 189 185 153 160 189 172 93 95 80 90 70 36 76 64 81 81 99 93 76 100
8 30 65 57 39 17 244 48 70 58 9 28 31 22 21 11 5 87 -21 -15 119 226 236 217 146 145 138 137 149 132 139 114 140 173 171 140 204 143 135 115 50 39 47 50 34 91 65 118 142 64 78 118 93 113
25 40 50 55 31 114 40 61 61 40 7 17 20 24 26 16 67 131 161 119 137 280 371 304 266 151 141 141 143 164 142 174 187 178 185 166 115 172 155 73 62 49 57 47 29 71 98 94 94 77 116 147 185 127
33 51 50 75 72 64 60 51 40 20 14 18 24 17 25 30 67 78 -89 248 254 391 380 350 276 285 224 327 361 249 229 204 177 152 183 165 148 125 109 53 39 42 47 69 67 68 89 90 100 110 109 171 134 133
66 60 52 55 40 53 47 29 28 16 21 19 20 23 52 79 43 41 -19 62 196 390 448 321 263 258 358 378 334 343 268 249 197 206 173 158 156 111 76 43 28 29 33 53 64 79 115 115 99 126 133 129 126 130
119 59 54 41 43 14 10 20 15 3 13 24 63 82 60 35 83 44 30 132 341 317 384 290 192 271 312 408 342 292 243 238 196 171 152 162 99 85 60 70 53 35 52 72 87 67 78 98 145 140 112 107 115 112
88 47 57 33 47 22 26 18 4 -10 31 100 89 59 52 13 142 103 179 285 421 369 390 289 214 218 169 299 318 237 262 216 224 125 160 81 39 61 53 54 75 90 68 48 44 57 63 87 127 144 122 136 147 120
32 31 37 34 32 -0 -2 -3 -1 66 92 73 77 44 69 74 96 116 254 304 359 360 313 244 229 160 211 218 226 255 227 182 183 145 159 125 93 36 29 27 46 94 95 77 93 87 85 87 121 129 146 152 123 130
30 37 33 22 28 9 -1 -4 -17 13 79 148 45 48 123 73 109 241 322 424 435 213 263 333 252 235 247 274 232 257 243 227 130 149 162 106 90 72 70 93 61 77 83 109 126 115 92 86 122 152 191 216 139 119
24 18 20 39 29 -1 2 -8 -13 60 114 44 6 72 100 178 124 230 327 304 187 263 382 371 316 267 283 287 175 190 233 186 176 112 82 96 69 53 73 103 98 85 115 108 136 127 128 277 367 328 202 143 133 109
14 18 38 37 34 -1 6 -0 59 171 74 -16 24 144 197 205 11 82 229 256 237 328 384 332 200 170 254 268 223 205 199 233 143 135 154 167 69 49 49 70 88 93 155 148 193 246 295 292 269 220 154 133 117 95
13 40 51 27 16 16 -2 103 171 98 -15 15 83 171 211 253 262 244 254 237 237 314 320 249 287 202 222 242 219 235 213 181 125 111 59 94 138 133 123 117 113 112 96 168 234 192 213 226 193 155 128 113 88 58
74 96 27 27 9 6 67 161 124 -58 22 75 145 181 188 235 260 239 127 173 159 184 196 218 176 189 153 210 168 152 182 147 134 121 76 97 144 161 178 198 187 209 310 260 196 205 217 190 146 103 88 61 37 47
103 94 33 42 169 177 219 90 38 29 155 199 233 235 242 151 142 138 110 104 111 128 116 145 156 144 171 108 113 180 247 251 109 98 113 114 152 151 159 173 214 213 200 195 219 201 172 133 102 95 66 58 43 54
70 68 18 57 112 144 75 47 156 265 306 286 199 200 204 181 85 39 47 75 104 97 144 139 104 94 104 174 142 183 175 166 181 190 146 139 148 192 212 220 219 209 202 200 202 179 140 114 92 70 70 72 98 115
45 47 44 76 128 244 232 286 227 275 254 236 156 184 190 163 129 95 102 106 120 167 224 190 122 157 148 127 87 90 112 212 267 248 227 204 198 199 198 191 206 224 244 219 189 145 103 81 74 80 103 121 125 123
104 104 127 140 145 206 264 303 262 269 259 252 189 179 206 120 135 191 254 208 186 161 176 188 177 115 107 110 133 162 129 108 182 212 247 287 237 215 222 207 198 202 188 169 141 125 85 87 95 105 103 130 108 77
269 205 164 182 246 278 253 332 220 162 192 113 111 126 116 109 167 218 226 222 207 221 198 163 107 135 122 94 61 58 71 101 152 230 229 198 211 219 209 195 199 182 150 124 103 101 95 94 98 95 107 91 64 51
253 246 296 292 208 163 161 260 160 135 124 113 109 114 136 126 122 171 162 128 111 136 152 166 139 89 107 152 175 164 187 208 218 205 194 198 193 180 191 192 167 146 132 114 97 82 88 114 103 102 89 63 56 51
170 178 181 107 87 99 190 207 209 128 109 123 134 110 116 117 102 67 43 130 127 124 62 68 101 123 148 134 128 124 123 158 175 192 173 179 193 188 161 144 131 123 110 93 91 100 101 98 98 69 62 48 42 44
67 102 97 108 105 105 163 185 178 56 87 118 97 73 74 68 83 92 74 114 124 123 110 96 102 140 175 179 165 142 110 126 173 214 198 162 147 137 132 126 123 121 104 100 95 95 82 66 52 41 36 37 40 50
30 76 80 58 65 71 75 87 68 69 89 107 84 73 95 105 98 87 101 105 146 179 212 176 151 149 141 120 138 149 146 126 124 137 136 118 106 95 89 85 84 98 103 93 74 55 42 36 32 34 41 48 56 68
41 70 72 84 45 39 85 64 76 72 95 88 68 85 78 94 87 86 106 193 184 240 190 138 110 113 127 145 170 192 193 158 141 131 126 132 135 128 104 93 90 88 63 53 39 29 29 37 45 54 62 69 72 80
55 68 46 95 117 102 120 95 92 87 54 47 73 96 98 91 74 106 146 170 176 203 238 241 197 163 166 198 201 187 169 140 135 126 127 131 113 94 85 77 65 49 36 34 37 44 47 52 58 63 68 76 89 85
125 136 123 196 197 190 159 132 94 78 107 86 96 103 75 92 138 101 130 143 140 131 157 180 200 197 204 190 194 187 161 117 92 84 84 70 39 45 45 39 34 34 38 39 38 39 45 55 61 70 66 80 84 88
163 190 148 163 156 121 110 127 93 91 111 104 85 100 139 161 253 217 157 138 149 168 168 165 153 141 140 134 142 150 153 151 141 98 68 62 51 48 39 37 42 47 46 47 52 55 51 54 58 72 80 98 106 106
158 141 154 171 179 175 164 126 148 173 143 113 109 143 174 211 236 242 246 165 155 172 175 173 160 154 136 117 103 91 88 90 92 95 80 58 47 39 39 40 35 37 39 41 45 51 55 66 70 70 71 71 73 82
168 145 140 206 209 167 204 181 192 170 138 127 160 171 169 203 235 210 255 257 168 181 160 142 134 135 128 118 112 124 114 80 79 75 71 58 47 43 33 32 31 32 38 46 50 56 54 58 70 72 83 62 50 43
115 110 129 151 175 155 161 151 144 144 138 143 172 197 201 186 158 151 160 226 166 137 137 136 132 120 114 110 98 93 93 82 72 59 46 35 25 20 19 23 33 42 45 49 52 51 51 37 58 54 45 43 28 19

GFSWCAN_con_3kmhel_264.txt.gz
Helicity
1 7 12 -9 2 3 53 52 65 66 55 33 37 39 40 36 -3 -12 51 43 10 204 131 56 128 180 134 92 158 188 254 208 242 256 221 208 190 157 118 89 136 185 192 182 163 146 67 50 219 123 119 172 222 208
-18 -16 -15 -10 10 29 29 70 59 69 79 53 48 46 32 45 14 1 113 29 120 99 212 118 47 153 135 98 80 183 271 189 266 299 214 200 219 207 173 153 87 159 175 164 124 97 110 64 136 98 130 176 154 119
-20 -24 -17 -15 -16 15 50 77 56 55 89 110 60 57 27 36 18 13 115 88 84 42 122 233 122 111 113 92 192 244 161 84 202 240 196 203 153 190 149 118 121 78 56 122 97 51 64 83 122 99 114 128 134 125
-20 -14 -24 -23 -35 -26 -6 45 59 84 104 139 37 67 45 42 42 16 103 115 135 196 219 188 170 71 122 111 154 109 137 104 79 99 183 209 221 85 122 120 113 141 110 75 87 87 65 84 58 135 122 117 116 143
-12 -11 -21 -21 -2 -12 24 46 86 116 142 60 73 68 69 44 34 43 85 81 124 178 254 237 121 129 99 94 163 139 141 156 148 192 229 223 192 179 174 230 156 136 142 122 92 60 60 72 70 52 168 168 100 120
-17 -6 -12 -26 -29 48 53 83 80 100 86 71 90 69 47 40 23 101 68 38 131 107 1 200 242 164 159 173 154 170 156 179 181 159 193 150 119 135 142 164 129 111 117 97 80 69 44 44 68 56 61 140 149 104
1 -6 -15 -49 -35 39 68 90 106 98 156 58 74 32 42 24 75 158 73 90 54 150 18 159 326 256 160 120 172 168 207 205 191 134 147 130 128 213 179 153 111 67 70 76 76 71 84 69 128 134 96 82 187 174
-4 -9 -39 -15 17 82 64 66 70 138 63 56 39 22 17 9 51 85 42 65 153 125 -22 125 455 431 199 236 261 235 217 207 197 172 133 145 157 163 98 76 118 119 86 92 67 61 55 84 103 103 66 88 249 248
12 -3 -19 42 45 72 90 147 164 60 40 48 26 10 60 103 94 94 37 10 47 146 130 100 416 612 211 229 291 242 236 198 156 159 161 169 187 208 103 67 59 74 91 72 60 92 88 107 114 128 112 132 234 186
67 44 83 132 111 115 108 66 43 66 48 37 62 130 142 80 63 51 21 -2 17 -3 -14 206 293 564 375 373 268 276 221 212 232 204 139 193 117 144 192 59 48 54 61 53 73 100 91 119 142 109 147 110 157 119
35 42 21 132 112 107 85 57 50 47 49 128 153 123 92 66 115 81 107 8 94 16 21 94 387 533 290 344 379 239 231 190 249 170 199 118 23 76 118 58 74 57 59 55 64 109 91 105 118 139 159 174 158 166
-4 15 56 83 85 80 66 38 49 87 99 55 85 72 138 99 88 92 62 43 129 43 234 208 375 403 353 313 313 308 243 219 239 148 132 -1 18 39 9 70 104 86 70 86 97 88 100 86 99 170 200 181 208 371
-4 78 26 52 77 73 35 48 34 49 105 88 72 54 39 106 88 86 42 167 130 252 301 474 391 483 336 332 254 262 196 209 170 218 145 25 118 36 37 65 74 65 117 100 107 107 134 124 129 208 238 427 451 332
-34 8 32 40 35 5 6 29 49 114 112 84 63 32 -32 29 60 27 124 59 154 331 339 383 371 344 289 285 200 180 137 181 208 150 63 53 34 10 100 110 77 67 151 130 122 152 204 237 371 475 416 416 326 230
18 24 13 3 -11 -8 10 26 13 169 85 38 31 -20 -42 42 73 37 40 102 267 458 456 395 313 248 330 290 251 226 194 242 160 119 33 70 96 102 104 96 115 157 275 154 237 329 332 345 431 460 401 319 238 174
21 5 0 5 16 19 48 94 88 39 44 -28 -31 12 1 102 14 -5 20 152 250 390 414 470 424 229 222 180 197 191 211 176 101 73 159 108 104 77 95 73 78 186 238 294 292 303 316 363 395 364 292 230 168 120
58 93 46 38 12 73 116 163 105 -25 -59 -144 -3 132 37 25 63 40 80 230 263 342 362 337 247 188 156 166 172 142 141 141 107 185 127 105 114 117 118 109 174 258 367 331 308 284 317 318 299 262 211 145 110 92
59 74 60 82 149 131 135 143 57 -49 -72 -9 95 93 85 91 107 103 152 230 246 275 322 292 194 179 206 132 79 93 96 144 159 147 138 96 115 147 232 283 279 385 392 280 274 274 268 239 202 169 150 109 89 69
59 50 50 47 66 57 73 44 4 13 78 186 159 191 206 160 114 98 108 140 144 172 204 149 140 146 119 97 52 61 170 217 245 243 247 204 220 256 289 323 340 347 333 268 219 241 202 163 157 131 100 74 64 64
24 15 25 12 6 -4 -14 7 -1 110 265 259 234 209 254 231 164 93 125 135 129 230 209 184 198 164 113 120 118 165 218 231 233 251 239 239 186 242 288 310 308 269 204 175 235 274 275 242 188 147 125 100 86 96
40 28 2 -117 -16 42 99 146 163 182 160 164 133 154 170 122 206 240 228 207 290 258 252 219 196 216 227 227 162 148 149 175 210 184 220 237 244 277 275 223 221 289 304 262 254 219 170 144 128 107 90 105 93 93
-4 -26 -8 130 199 195 188 221 161 146 144 136 123 139 159 204 269 278 191 179 168 250 204 182 187 163 132 96 80 45 161 228 224 288 302 298 273 254 259 250 234 237 234 210 210 206 183 153 116 96 94 96 93 91
87 142 196 184 158 112 169 217 121 97 78 99 77 109 125 166 194 198 175 208 180 195 157 151 192 197 166 134 145 156 150 206 250 244 247 266 264 245 239 235 212 212 207 186 168 155 162 108 117 98 100 89 100 97
86 127 128 108 72 68 75 119 106 83 78 72 79 104 96 144 192 176 144 163 188 195 134 85 128 181 230 246 242 174 150 230 261 252 229 243 240 213 201 206 198 181 167 154 150 135 109 124 106 91 93 88 79 63
87 111 87 65 60 50 68 64 72 61 95 65 99 92 83 80 96 125 102 138 111 88 74 116 174 165 172 174 187 203 206 232 260 267 231 229 237 217 200 196 192 160 123 125 111 107 91 93 87 84 77 60 47 45
72 95 74 66 80 64 63 72 69 79 103 114 91 72 91 92 90 59 83 89 153 113 95 144 192 238 255 214 200 183 193 205 226 237 175 141 125 116 111 108 113 136 140 110 96 93 90 83 67 53 44 39 40 48
59 58 49 80 31 34 109 94 84 72 84 72 77 109 94 70 61 67 153 254 254 233 169 160 185 215 239 257 244 208 172 169 177 196 221 235 215 182 151 125 135 124 98 96 82 67 53 45 41 40 43 51 58 70
38 59 63 82 90 76 114 98 97 85 102 71 87 98 77 80 67 110 121 173 252 282 274 239 210 199 191 187 187 192 194 178 169 174 182 191 172 159 146 118 92 72 55 46 40 36 34 38 46 52 57 63 71 84
88 84 117 165 133 134 140 115 65 71 140 115 76 70 57 85 84 117 154 163 180 198 213 195 194 203 233 249 249 223 163 112 93 113 116 87 80 94 77 62 50 42 35 29 26 28 33 46 52 58 55 69 80 88
121 150 141 169 166 124 112 93 76 77 97 94 84 96 151 195 257 159 137 138 157 181 183 181 173 188 206 210 219 238 249 234 208 112 89 85 69 53 43 37 30 27 25 29 37 42 44 43 50 61 67 80 91 100
192 172 193 175 168 113 113 129 158 133 100 87 75 137 148 169 221 333 359 228 172 158 179 215 225 189 170 152 137 142 157 164 156 146 101 65 46 41 37 24 23 28 27 29 37 42 48 57 65 68 72 79 81 91
165 124 145 215 174 135 137 162 169 139 125 109 113 130 158 199 236 233 355 224 185 228 208 195 199 187 165 165 172 163 134 85 80 78 78 58 51 44 38 29 23 26 37 45 47 51 54 60 65 71 81 76 76 75
115 121 143 151 164 158 139 158 163 156 166 190 220 198 177 175 178 174 256 303 192 191 190 176 168 163 149 135 123 107 101 88 77 67 56 42 32 34 21 26 28 29 24 31 40 47 53 58 68 71 68 64 60 49

GFSWCAN_con_3kmhel_267.txt.gz
Helicity
19 20 16 24 25 22 14 14 8 15 25 36 41 44 24 -3 28 60 89 81 89 187 193 247 130 43 122 130 146 166 290 280 338 362 269 226 173 200 187 123 181 257 244 230 179 156 50 66 239 174 72 128 139 276
19 8 13 5 4 2 2 1 9 13 24 38 54 49 47 10 -0 42 99 41 79 113 183 225 140 35 71 51 118 115 230 282 321 366 281 229 204 202 187 157 159 195 221 237 166 98 88 131 139 167 140 185 237 295
10 1 -0 2 -1 -16 -16 -10 10 11 7 28 53 54 63 29 -4 39 108 89 92 65 45 117 114 44 90 77 61 101 235 226 280 301 280 217 165 203 211 208 174 162 155 149 165 65 32 117 189 207 175 164 197 232
-10 -12 -7 -6 -8 -17 -10 -11 -11 -0 10 61 39 49 57 67 15 14 98 105 110 136 87 63 -8 65 128 87 97 77 139 252 222 230 250 177 126 111 157 145 214 180 166 126 129 93 96 103 176 181 177 170 182 190
-31 -21 -13 -13 -19 -11 -15 -20 -19 -20 11 40 49 49 65 78 48 71 104 97 117 146 134 111 193 79 125 123 125 119 103 124 263 252 251 212 183 189 182 150 131 201 200 211 147 127 115 92 114 147 195 197 205 226
-29 -29 -16 -12 -17 -7 -16 -22 -15 -7 18 30 33 35 72 75 78 129 79 85 101 135 160 126 170 119 144 121 116 160 147 157 225 231 211 202 194 160 135 147 156 173 136 163 148 79 80 98 91 113 173 252 261 255
-18 -24 -18 -12 -1 -9 -11 -23 -20 -36 14 73 59 74 66 88 145 226 160 98 108 216 199 108 103 250 153 201 192 188 201 171 166 231 216 193 150 147 126 98 77 100 111 147 147 124 123 112 117 119 104 168 228 241
16 4 -4 -12 -7 -15 -22 -21 -24 47 61 71 70 65 94 68 87 98 59 85 101 177 129 230 127 170 307 385 275 230 212 211 268 199 249 228 173 167 110 79 116 139 121 109 172 176 143 124 158 198 209 238 265 325
-6 -15 -8 -8 -14 -32 18 16 20 98 59 70 63 95 120 132 125 103 17 84 185 174 196 210 69 130 353 477 363 355 208 177 119 203 304 231 202 171 98 106 85 67 105 155 122 135 144 159 151 178 176 133 261 411
56 26 36 56 28 23 39 43 54 101 108 195 223 266 215 97 126 49 71 76 23 -101 53 114 -169 -16 269 496 548 467 248 175 66 65 166 131 97 97 117 74 41 39 53 67 132 131 133 170 183 243 223 180 280 397
78 73 57 31 60 45 83 89 74 117 139 301 208 242 110 70 117 102 115 99 98 45 -52 88 52 -38 193 371 510 386 332 255 184 141 138 71 -44 45 167 180 123 67 58 48 57 60 109 150 165 223 211 221 271 288
52 33 45 24 40 83 231 151 138 397 471 181 138 182 159 143 130 121 115 126 49 90 77 193 239 156 311 340 423 440 368 306 272 191 192 74 60 74 63 121 57 117 169 116 78 75 145 194 189 233 253 279 328 371
18 11 30 75 39 251 162 118 243 261 219 253 186 154 160 145 144 120 115 102 147 72 106 207 209 253 495 483 364 346 318 292 228 193 151 22 37 66 57 43 68 77 181 219 88 126 171 213 210 256 378 425 461 482
-11 20 40 114 90 80 101 138 162 165 268 143 178 117 106 -42 113 169 134 110 31 91 98 187 178 216 538 439 279 312 237 234 285 152 84 74 39 33 4 47 90 96 123 159 173 202 228 290 340 380 411 440 476 437
-7 61 22 -11 63 79 98 95 67 115 186 141 94 65 -18 4 52 69 35 99 44 21 110 213 176 297 468 383 362 291 259 256 178 95 72 66 56 61 26 100 146 126 164 204 344 338 343 394 411 444 444 421 431 345
10 15 11 43 52 50 38 36 102 175 100 13 -79 -105 -173 -109 -35 60 -49 -15 -30 49 202 381 314 312 435 293 306 268 180 158 79 92 96 85 55 -23 71 159 189 145 239 352 369 340 364 405 415 436 418 385 334 254
43 -94 -1 11 16 31 8 135 50 -7 -45 -65 -204 -162 -164 -128 -73 -155 -43 14 -12 154 361 349 314 330 253 322 271 204 158 101 73 74 73 84 132 145 174 152 178 319 444 460 427 410 419 407 419 430 400 316 265 191
92 -14 -6 20 68 50 116 57 -43 -81 -235 -237 -211 -110 -68 123 167 57 -25 61 38 166 276 289 182 237 222 218 188 158 190 220 208 179 152 169 207 166 147 220 298 386 441 437 402 371 361 374 373 345 302 234 208 169
27 40 16 37 69 20 -60 -72 -55 -181 -291 -206 -28 3 -27 -14 124 69 78 194 86 212 255 272 217 221 235 172 115 101 158 234 270 281 250 217 202 221 274 324 365 396 395 360 337 326 303 281 260 241 212 188 163 109
23 39 44 21 -3 -9 -64 -109 -135 -70 32 140 74 47 2 34 60 125 132 89 251 283 288 247 190 253 175 166 151 135 242 335 370 345 273 258 272 292 296 358 374 357 354 294 274 292 313 316 264 208 180 162 160 152
17 27 -9 -57 -57 -44 -65 -21 100 77 139 306 307 253 200 209 197 309 300 353 257 206 158 152 173 198 196 171 184 246 294 315 344 311 305 304 270 312 303 297 311 310 321 346 381 384 353 303 251 248 246 215 184 141
7 -39 -28 -50 -49 -9 27 80 112 189 178 230 239 206 181 228 237 226 237 230 208 205 185 138 125 123 139 146 140 124 179 249 322 307 300 316 336 301 296 297 328 335 356 361 361 325 269 225 209 191 174 147 122 105
-14 12 -53 -19 83 74 118 188 137 151 83 108 141 130 140 159 196 218 111 147 275 224 156 166 172 182 154 130 130 163 229 220 295 356 344 311 290 307 306 283 264 301 322 303 255 234 224 198 175 148 123 122 111 103
3 -10 39 64 73 71 74 65 82 65 77 80 74 106 141 165 172 140 138 172 112 109 129 119 133 159 160 185 185 183 251 326 335 307 288 305 316 321 309 264 254 266 250 229 226 206 178 158 130 121 111 100 97 99
72 99 84 52 60 18 39 55 101 77 88 103 104 89 119 118 96 109 110 112 90 97 122 146 181 195 219 224 246 262 282 350 336 354 311 326 342 350 344 339 313 232 175 172 162 157 147 127 110 97 94 97 97 92
41 52 45 24 46 30 16 55 43 85 77 58 51 87 101 89 102 130 151 201 127 116 139 172 228 327 382 345 315 344 367 353 393 381 282 253 213 197 160 155 171 192 144 124 116 110 104 102 100 102 96 84 75 69
17 29 52 54 50 70 81 95 78 59 42 35 32 61 87 67 59 104 115 224 143 145 236 277 277 290 290 292 304 298 275 292 302 266 242 227 189 138 96 102 112 101 106 119 120 115 107 103 96 86 70 59 57 56
46 84 96 129 133 140 89 84 76 59 45 29 60 59 42 43 27 96 195 270 240 261 298 310 313 310 293 251 217 194 189 188 201 225 258 277 238 200 170 138 123 109 90 86 79 78 73 65 57 49 47 45 55 70
104 105 111 161 109 90 57 43 38 58 75 29 37 40 34 49 48 118 168 216 220 238 229 223 201 209 207 207 222 202 155 116 114 159 164 127 130 141 105 93 83 78 68 60 45 31 26 28 34 45 51 68 86 100
105 110 90 106 101 69 72 74 44 48 33 38 39 75 140 155 201 171 155 181 182 198 204 201 182 172 171 188 209 253 260 196 120 109 99 92 70 64 82 78 63 49 42 38 36 36 44 49 51 56 60 65 75 83
141 144 163 152 149 129 149 141 122 124 128 126 133 162 153 179 289 371 343 149 141 169 192 213 216 187 185 184 182 205 232 229 179 157 124 99 98 78 64 51 36 33 33 38 41 41 42 42 45 50 60 68 77 88
145 122 192 245 181 150 175 190 192 145 117 122 141 154 170 222 234 224 326 264 191 187 184 195 207 193 181 174 157 150 139 122 142 133 120 84 68 50 34 28 33 36 36 32 28 33 37 42 51 59 68 74 81 81
165 157 206 222 199 163 128 189 176 114 128 127 125 135 165 149 165 194 261 242 199 201 205 190 160 152 161 164 154 141 138 117 99 89 72 51 37 26 18 20 21 20 28 30 35 40 47 49 56 63 70 72 67 68

GFSWCAN_con_3kmhel_270.txt.gz
Helicity
18 34 37 37 39 31 27 34 31 27 23 23 19 18 15 18 2 54 101 97 66 109 150 249 260 208 157 130 128 157 155 190 263 262 282 303 220 208 176 132 179 239 234 223 206 170 57 58 200 159 66 59 82 224
44 41 47 38 31 29 27 26 27 24 25 20 21 28 21 28 20 34 87 71 89 135 144 87 88 156 89 137 177 92 174 222 218 282 298 270 246 238 192 152 148 187 202 202 158 76 47 99 126 171 77 68 82 248
52 40 34 29 22 26 22 13 17 18 19 14 28 15 31 44 33 58 134 80 96 91 40 141 126 158 14 69 89 131 83 182 169 174 239 291 249 241 193 190 173 166 196 154 156 72 39 42 114 136 154 116 177 289
-7 7 14 11 6 5 14 13 8 5 13 18 25 13 31 43 47 61 172 119 103 85 67 50 114 125 35 58 101 64 112 204 249 195 255 257 225 183 150 116 165 153 167 160 114 89 89 75 117 174 208 199 195 195
9 -3 -5 -9 -10 -12 -3 6 -2 2 11 16 18 13 21 55 51 112 206 154 108 81 112 26 175 173 124 29 58 72 56 94 253 274 268 243 238 181 165 147 154 209 173 212 159 94 112 65 115 154 244 202 199 215
17 1 -16 -16 -17 -19 -6 -6 -8 -2 5 -4 -5 13 43 47 50 212 152 130 135 152 46 13 92 105 140 124 97 128 117 101 137 260 264 250 203 197 115 117 132 136 141 147 145 92 106 79 110 159 197 176 194 233
23 4 -17 -22 -22 -22 -18 -12 -8 -2 -5 -7 -8 -20 19 70 183 297 210 134 194 211 98 23 67 137 78 108 215 218 151 115 134 199 282 273 230 205 139 93 103 109 112 107 101 129 123 108 126 129 187 208 238 259
28 20 34 39 14 -9 -25 -25 -14 -10 -9 -16 -21 5 34 42 289 197 263 94 154 202 154 90 94 193 68 228 199 184 157 195 132 160 233 237 283 216 119 105 157 117 125 146 122 99 90 94 107 150 162 241 274 326
21 5 7 21 26 2 -8 -23 -24 -6 -28 -13 18 41 93 151 289 358 152 52 123 167 157 113 75 110 159 218 234 213 173 109 143 166 170 189 237 208 116 158 132 113 103 102 164 143 124 157 130 161 226 235 275 313
20 14 1 18 -41 -16 -12 -14 -32 -16 -9 32 107 202 132 196 244 231 156 141 118 130 179 116 91 18 138 179 265 252 226 175 136 183 201 230 166 199 196 125 86 75 72 82 99 143 155 190 209 187 198 229 246 320
-17 11 29 45 39 15 55 30 9 53 29 311 252 298 184 285 337 199 195 162 155 79 81 105 43 -4 159 220 298 330 373 287 147 157 185 221 141 156 228 182 194 114 48 75 83 77 106 139 152 174 187 231 251 317
16 2 13 45 48 36 53 39 37 135 391 355 352 208 300 242 238 247 226 145 155 101 48 64 -3 3 35 -82 289 439 314 308 221 155 129 3 66 126 127 152 139 113 84 81 108 81 78 99 123 172 216 253 247 317
-11 20 26 71 37 9 51 26 163 393 358 357 383 293 243 139 190 285 287 287 291 168 135 80 87 11 51 50 50 411 413 278 241 261 200 -28 47 72 67 86 81 105 106 162 162 157 118 100 149 247 284 330 361 375
-8 17 10 23 21 22 65 211 354 420 606 397 342 338 175 319 212 222 121 216 347 194 99 91 52 25 88 69 93 396 309 295 276 169 127 74 50 80 101 84 81 77 88 142 173 210 168 119 207 309 367 405 442 406
37 24 29 35 33 100 258 290 277 433 390 316 256 236 315 328 206 104 139 156 154 11 55 94 89 34 186 99 265 254 338 285 197 136 117 84 85 74 61 9 8 71 138 158 145 210 252 278 340 389 370 407 458 466
65 86 72 185 187 212 153 205 373 366 329 281 235 237 208 37 53 45 83 65 47 -28 -3 17 56 -90 180 160 186 286 150 156 115 137 170 145 99 70 20 2 35 87 126 174 265 288 325 389 372 392 433 438 432 402
82 56 19 74 150 216 246 294 280 235 114 31 5 -3 14 55 -49 -70 -79 5 4 23 29 -12 25 99 70 182 453 348 148 112 85 93 66 69 76 24 53 73 1 67 206 248 307 309 393 430 417 430 412 371 371 315
54 49 114 155 116 159 246 248 81 -15 -79 -114 -99 -72 -109 -97 -89 -63 -39 -23 -29 -9 45 -53 -30 136 114 329 183 64 48 176 144 75 38 33 47 66 120 190 196 189 216 282 336 364 395 374 391 414 420 378 371 308
61 64 28 34 86 80 15 1 -17 -63 -76 -109 -109 -86 -99 -84 -73 -44 -74 -159 -114 -22 -127 -67 59 127 121 43 90 138 172 162 170 224 190 158 187 196 156 148 152 221 277 321 319 327 311 323 353 374 379 339 317 248
19 44 37 48 11 29 1 -31 -58 -62 -78 -92 -67 53 127 65 22 45 40 12 -10 -113 -90 135 258 249 181 122 80 127 183 211 266 281 272 251 210 212 174 187 206 231 299 349 395 380 367 374 374 347 286 252 239 196
20 -0 -19 -36 -36 -25 -27 -66 -28 112 138 179 259 174 70 43 35 39 91 143 124 232 258 279 143 178 189 152 132 146 229 223 241 184 239 265 204 205 228 249 273 286 329 333 364 363 357 329 301 287 268 243 207 183
12 -16 -3 -13 -22 -24 30 50 42 65 91 143 171 166 215 288 277 483 343 234 174 291 252 178 125 92 102 108 124 148 188 285 305 343 342 291 192 189 249 251 283 320 322 291 276 288 292 271 249 233 235 219 207 187
-18 2 -10 -19 70 40 36 86 83 94 51 114 109 112 107 201 296 338 179 244 250 248 203 170 140 139 130 136 157 174 189 240 268 335 395 372 264 237 270 258 284 335 330 308 287 283 272 242 242 227 204 194 182 169
34 -1 51 49 39 51 52 71 89 83 71 85 93 81 98 113 127 135 232 172 182 158 167 146 111 107 128 149 148 144 168 262 305 280 253 278 315 274 259 261 259 252 250 239 219 206 198 199 187 192 178 157 136 117
38 48 46 58 55 53 40 34 37 27 36 48 44 57 60 59 63 94 116 127 85 104 114 100 106 98 90 133 200 198 183 284 343 332 247 253 289 302 318 307 294 249 170 201 205 200 207 184 156 133 118 107 100 92
38 35 28 45 61 20 36 39 25 28 34 29 33 46 71 75 90 91 108 147 99 60 58 88 122 166 210 236 277 323 290 275 365 357 295 290 293 322 311 331 319 311 236 129 117 127 130 124 117 110 107 97 92 89
24 37 28 25 33 32 37 37 47 25 13 -1 3 36 38 38 35 59 89 133 102 180 232 242 268 335 337 366 377 371 393 388 394 349 268 253 225 181 136 130 136 123 123 132 118 101 94 94 95 94 95 99 88 71
-10 1 17 81 66 89 53 61 37 26 -32 -25 -3 11 1 5 14 69 88 122 107 229 298 304 317 336 328 307 276 271 276 254 257 271 304 322 271 214 175 145 116 103 92 87 83 84 83 78 77 72 68 64 61 63
57 78 80 133 99 80 59 47 27 6 27 -10 5 3 14 26 44 56 87 110 128 187 210 194 188 202 222 256 261 210 136 88 118 179 165 133 130 138 103 97 102 103 95 94 96 76 62 54 47 42 40 40 44 52
119 121 106 110 85 71 64 32 35 51 65 11 -9 35 80 91 131 133 111 135 167 185 172 154 132 141 138 149 157 191 209 156 122 94 65 62 61 54 79 87 89 85 76 77 74 70 76 63 60 54 54 53 55 58
147 148 134 135 123 104 78 108 151 122 82 69 116 125 132 113 171 202 217 167 178 178 181 178 183 175 156 134 134 152 172 173 145 145 137 95 83 82 77 77 62 50 47 47 47 44 44 44 42 41 40 40 42 46
143 117 136 183 160 85 152 170 155 182 152 128 119 126 143 136 159 144 189 140 156 172 164 165 171 162 153 162 151 155 151 125 133 109 103 85 83 73 58 53 51 54 52 47 38 31 30 33 32 35 34 38 47 56
170 168 221 265 219 194 204 219 207 164 168 132 116 121 130 89 85 98 142 174 154 162 193 207 192 166 159 161 161 164 159 139 123 110 94 75 63 54 45 41 41 36 33 28 27 24 30 30 30 34 39 45 51 61

GFSWCAN_con_3kmhel_273.txt.gz
Helicity
-7 -14 8 33 45 47 50 46 35 33 34 31 29 24 20 12 9 85 79 72 113 122 165 124 118 248 282 154 156 120 135 162 230 215 262 301 236 221 209 123 182 272 242 230 228 177 33 69 212 158 66 77 79 162
-0 1 12 38 50 54 51 43 40 40 41 37 35 29 26 14 15 66 105 74 51 99 126 129 112 111 164 203 193 163 178 184 162 225 260 252 300 323 276 187 178 176 204 220 174 91 109 78 93 124 92 67 62 172
-7 -25 -0 45 53 48 48 47 42 39 42 37 36 36 29 21 27 80 170 148 81 57 39 74 127 145 65 125 146 160 79 146 222 176 178 217 239 314 245 229 190 165 185 168 164 91 69 67 53 71 101 48 55 121
8 -6 -33 -41 -22 -5 15 17 19 31 33 33 30 33 26 22 17 93 215 197 154 83 -10 28 70 128 59 22 90 128 87 106 179 228 264 221 212 236 227 165 189 165 177 156 134 95 69 59 58 51 88 95 134 161
29 24 17 -2 -14 -17 -7 -1 5 13 30 31 24 29 25 25 30 127 256 187 182 105 14 22 61 61 91 41 58 99 55 88 146 189 253 222 215 271 306 229 169 206 169 218 138 95 101 77 43 100 135 144 140 176
30 32 17 9 1 -6 -11 -7 -3 -5 9 19 27 25 27 16 19 233 215 180 191 196 81 36 5 83 117 71 45 78 87 52 39 1 158 202 226 236 209 170 160 166 158 147 128 107 79 102 69 141 158 149 154 143
28 24 17 8 3 -7 -16 -18 -9 -5 2 4 22 21 27 23 103 243 189 134 245 243 123 31 3 16 30 228 104 90 86 128 90 -43 37 125 212 230 190 120 130 118 108 113 92 106 97 102 105 99 151 149 163 146
87 53 18 6 -4 7 6 -8 -10 -5 -9 -1 19 10 -5 9 142 209 249 95 160 277 172 82 24 38 24 184 237 171 162 155 100 13 88 117 185 248 153 111 167 133 89 88 97 109 95 71 128 103 188 217 213 226
28 25 51 77 33 4 5 6 -2 -12 -7 7 14 8 36 78 240 159 216 121 241 231 163 107 59 35 52 118 175 269 201 117 112 74 107 8 140 227 210 198 131 152 191 120 103 91 105 90 91 119 165 195 215 231
11 7 11 5 11 13 19 9 -13 -12 -7 12 42 137 46 179 241 188 287 252 269 239 228 133 97 56 41 51 137 206 198 163 84 75 110 146 53 102 165 133 111 116 134 163 157 132 109 112 106 128 149 172 196 248
2 21 43 25 16 8 19 24 -7 18 14 93 92 256 159 230 357 327 582 230 186 332 234 123 92 63 54 10 94 168 192 160 142 155 181 137 106 78 147 129 128 90 71 66 65 110 89 103 113 124 160 181 227 282
-15 -5 6 12 -1 24 34 35 45 57 127 121 144 385 507 383 224 291 266 307 289 346 245 159 79 149 60 -42 -50 132 259 159 154 242 194 99 2 72 55 113 179 128 92 72 86 62 80 102 117 124 151 196 200 207
15 1 -5 17 35 41 60 50 50 136 165 207 411 522 400 362 296 237 351 432 302 214 197 276 218 127 84 -15 -90 -92 84 240 98 240 215 97 87 53 22 55 101 174 172 181 157 127 108 94 125 188 174 203 251 268
24 18 67 36 32 60 74 64 125 348 468 306 347 368 409 287 310 307 269 360 278 154 145 231 220 78 50 41 -35 20 -48 161 253 197 163 92 32 64 148 125 91 88 104 90 105 160 181 190 179 155 189 243 295 283
29 28 11 18 31 53 61 143 188 361 318 241 231 222 307 334 258 196 238 259 177 257 254 191 99 83 59 15 8 13 38 105 268 194 104 179 113 77 70 82 76 103 122 132 157 209 199 183 184 191 189 236 318 380
65 54 85 37 31 35 207 203 327 361 323 246 276 242 281 230 269 264 213 121 126 161 170 68 24 37 19 18 10 77 52 189 149 62 207 175 112 110 109 110 80 97 136 147 169 187 218 218 224 212 262 289 325 369
165 146 23 44 123 191 302 470 465 302 236 261 286 260 157 166 169 116 117 91 107 148 48 51 -54 -93 -6 -14 17 -3 135 33 80 118 72 103 109 109 115 119 115 88 107 118 167 207 215 267 321 314 305 348 344 348
-22 150 315 434 388 428 520 388 222 163 249 222 131 164 183 152 116 121 109 122 118 43 30 39 -32 -98 -58 60 36 108 89 36 31 29 52 73 104 119 92 66 53 78 131 146 174 215 254 268 253 259 349 372 398 411
11 30 57 118 151 189 93 49 77 -62 42 70 7 -25 -0 48 42 44 91 91 84 45 -2 -6 -54 -1 55 250 167 2 101 163 155 130 84 70 59 71 115 146 159 158 166 180 179 204 210 222 260 311 317 323 396 396
26 45 56 70 59 50 56 34 -7 -12 -3 -2 -28 -34 -10 17 -1 -40 78 93 97 36 -15 -77 -106 113 103 13 -6 11 15 66 129 144 130 142 135 137 133 134 143 153 194 218 248 277 313 324 301 297 352 381 410 349
18 13 -16 -14 -4 -18 -1 -19 -39 30 103 199 116 70 41 -8 31 -11 -0 -42 -14 1 -144 -186 -39 -1 -75 -33 -69 -35 111 109 112 96 103 129 109 113 128 147 151 152 171 173 222 240 235 233 282 344 392 387 333 300
20 -5 -12 -6 -2 23 109 98 137 68 125 172 89 24 17 14 4 10 23 -32 -30 -43 -34 -15 3 19 15 66 134 175 154 177 166 197 235 220 166 158 152 133 153 199 218 214 217 229 255 289 332 348 355 337 304 282
-1 -12 15 48 112 94 102 74 117 94 89 95 119 158 147 279 268 225 187 134 182 164 145 85 83 65 87 120 144 174 165 165 187 211 234 257 255 225 224 189 148 165 209 240 252 301 346 342 381 368 320 289 263 239
23 24 52 99 113 94 45 123 104 85 45 35 52 154 290 314 380 398 383 262 215 189 182 135 113 137 111 110 120 112 107 143 185 215 207 276 335 344 278 284 279 288 298 299 318 321 308 304 281 266 238 215 194 174
65 73 44 93 74 65 73 61 49 24 30 37 32 36 40 66 236 186 211 226 211 142 129 97 84 84 69 81 111 136 142 140 211 265 230 222 256 257 279 296 287 295 246 317 290 276 268 261 245 216 195 170 144 127
57 41 40 40 43 45 54 33 4 -3 -3 -2 2 17 30 42 92 95 96 106 88 57 56 47 63 99 125 108 121 149 143 157 248 314 268 217 197 213 212 241 256 295 226 147 160 198 213 202 171 148 133 124 114 99
40 32 39 8 20 18 22 28 6 4 5 -12 -25 -11 2 35 42 35 71 68 51 61 85 108 108 131 152 178 210 224 216 257 294 277 262 284 282 261 237 226 221 204 180 153 138 120 115 119 119 105 88 78 67 60
1 -0 8 17 27 24 7 13 12 19 17 15 -2 17 4 -5 -18 -8 11 35 89 131 196 229 249 273 274 206 158 153 184 217 232 277 307 311 261 215 179 144 126 133 131 119 106 98 86 74 67 63 63 64 66 52
16 35 27 47 40 33 26 24 23 32 38 -5 -20 -18 -0 -7 -9 17 26 26 50 104 123 118 125 153 174 192 215 187 140 128 182 236 209 154 145 156 127 106 103 98 86 92 100 76 69 56 46 42 33 30 23 28
57 69 63 53 54 36 44 40 43 52 44 20 -14 -3 34 28 78 109 75 84 87 88 75 71 64 92 103 123 142 177 182 117 80 56 48 50 49 36 65 70 68 62 57 59 58 57 68 60 54 50 49 45 38 33
131 149 117 109 89 74 37 52 82 70 62 55 99 82 60 42 53 102 127 105 121 124 118 121 129 97 83 69 73 93 110 136 118 119 116 74 57 57 50 45 39 43 46 49 46 40 32 30 26 30 35 35 34 30
204 161 145 141 149 98 117 113 102 115 130 111 92 65 64 49 41 66 44 63 96 122 109 111 126 120 98 93 96 113 112 96 116 96 89 72 65 51 49 46 43 41 40 38 34 27 22 23 24 25 23 25 26 27
236 238 196 203 179 161 165 159 152 137 156 120 89 62 54 36 25 47 68 70 68 97 131 159 161 155 147 157 169 173 165 132 111 102 92 75 63 58 52 46 40 35 35 30 29 17 24 21 16 17 19 20 24 30